Multibeam Report for KRUS05RR


Ship Name: Roger Revelle
Chief Scientist: Baggeroer, Arthur
Massachusetts Institute of Technology
Source Organization: University of California, Scripps Institution of Oceanography (UC/SIO)
Start Date: 2004-09-14
End Date: 2004-10-09


View ISO Metadata

Visit the full NCEI Bathymetry Viewer


Multibeam Bathymetry

Cruise Details

Project: Low frequency acoustic propagation across margins
Instrument: Simrad EM120

Data Quality

Number of Files: 1190
Number of Records: 101875
BATHYMETRY DATA Quantity Percentage
Number of Beams 19458125 100%
Number of Good Beams 17600046 90.45%
Number of Zero Beams 1858079 9.55%
Number of Flagged Beams 0 0%
AMPLITUDE DATA Quantity Percentage
Number of Beams 19458125 100%
Number of Good Beams 17600046 90.45%
Number of Zero Beams 1858079 9.55%
Number of Flagged Beams 0 0%
SIDESCAN DATA Quantity Percentage
Number of Pixels 104320000 100%
Number of Good Pixels 102753272 98.5%
Number of Zero Pixels 0 0%
Number of Flagged Pixels 1566728 1.5%

Navigation Totals

Total Time: 580.6989 hours
Total Track Length: 6798.7148 km
Average Speed: 11.708 km/hr (6.3218 knots)

Cruise Bounds

Northern Extent: 40.100197
Southern Extent: 21.399654
Western Extent: -159.68898
Eastern Extent: -145.55943

Limits

Minimum Sonar Depth 2.7 Maximum Sonar Depth 6553.6001
Minimum Altitude 0 Maximum Altitude 8219.8799
Minimum Depth 119.96 Maximum Depth 8235.96
Minimum Amplitude -63.5 Maximum Amplitude 37
Minimum Sidescan 0 Maximum Sidescan 127

File Information

Full Resolution Bathymetry as collected (raw): 594

Files File Size Description
20070727102423001_0001_20040914_051619p.mb57.gz 7.05MB Simrad multibeam processing format
20070727102424002_0002_20040914_061619p.mb57.gz 4.53MB Simrad multibeam processing format
20070727102424003_0003_20040914_071619p.mb57.gz 4.33MB Simrad multibeam processing format
20070727102425004_0004_20040914_081619p.mb57.gz 4.43MB Simrad multibeam processing format
20070727102426005_0005_20040914_091619p.mb57.gz 4.20MB Simrad multibeam processing format
20070727102426006_0006_20040914_101619p.mb57.gz 4.09MB Simrad multibeam processing format
20070727102426007_0007_20040914_111619p.mb57.gz 4.45MB Simrad multibeam processing format
20070727102427008_0008_20040914_121619p.mb57.gz 4.52MB Simrad multibeam processing format
20070727102427009_0009_20040914_131619p.mb57.gz 4.55MB Simrad multibeam processing format
20070727102428010_0010_20040914_141619p.mb57.gz 4.64MB Simrad multibeam processing format
20070727102428011_0011_20040914_151619p.mb57.gz 4.26MB Simrad multibeam processing format
20070727102429012_0012_20040914_161619p.mb57.gz 4.32MB Simrad multibeam processing format
20070727102430013_0013_20040914_171620p.mb57.gz 4.56MB Simrad multibeam processing format
20070727102431014_0014_20040914_181620p.mb57.gz 4.55MB Simrad multibeam processing format
20070727102431015_0015_20040914_191620p.mb57.gz 4.38MB Simrad multibeam processing format
20070727102432016_0016_20040914_201620p.mb57.gz 4.26MB Simrad multibeam processing format
20070727102433017_0017_20040914_211620p.mb57.gz 4.15MB Simrad multibeam processing format
20070727102433018_0019_20040914_222119p.mb57.gz 4.19MB Simrad multibeam processing format
20070727102434019_0020_20040914_232119p.mb57.gz 4.30MB Simrad multibeam processing format
20070727102434020_0021_20040915_002120p.mb57.gz 4.42MB Simrad multibeam processing format
20070727102435021_0022_20040915_012120p.mb57.gz 4.43MB Simrad multibeam processing format
20070727102436022_0023_20040915_022120p.mb57.gz 4.34MB Simrad multibeam processing format
20070727102437023_0024_20040915_032120p.mb57.gz 4.44MB Simrad multibeam processing format
20070727102437024_0025_20040915_042120p.mb57.gz 4.46MB Simrad multibeam processing format
20070727102438025_0026_20040915_052120p.mb57.gz 4.51MB Simrad multibeam processing format
20070727102438026_0027_20040915_062120p.mb57.gz 4.30MB Simrad multibeam processing format
20070727102438027_0028_20040915_072120p.mb57.gz 4.45MB Simrad multibeam processing format
20070727102439028_0029_20040915_082120p.mb57.gz 7.58MB Simrad multibeam processing format
20070727102439029_0030_20040915_092120p.mb57.gz 7.57MB Simrad multibeam processing format
20070727102441030_0031_20040915_102120p.mb57.gz 7.68MB Simrad multibeam processing format
20070727102442031_0032_20040915_112120p.mb57.gz 7.82MB Simrad multibeam processing format
20070727102442032_0033_20040915_122121p.mb57.gz 4.38MB Simrad multibeam processing format
20070727102442033_0034_20040915_132121p.mb57.gz 4.51MB Simrad multibeam processing format
20070727102443034_0035_20040915_142121p.mb57.gz 4.48MB Simrad multibeam processing format
20070727102443035_0036_20040915_152121p.mb57.gz 4.22MB Simrad multibeam processing format
20070727102444036_0037_20040915_162121p.mb57.gz 4.41MB Simrad multibeam processing format
20070727102444037_0038_20040915_172121p.mb57.gz 4.30MB Simrad multibeam processing format
20070727102446038_0039_20040915_182121p.mb57.gz 4.28MB Simrad multibeam processing format
20070727102446039_0040_20040915_192121p.mb57.gz 4.18MB Simrad multibeam processing format
20070727102446040_0041_20040915_202121p.mb57.gz 4.33MB Simrad multibeam processing format
20070727102447041_0042_20040915_212121p.mb57.gz 3.96MB Simrad multibeam processing format
20070727102447042_0043_20040915_221808p.mb57.gz 4.03MB Simrad multibeam processing format
20070727102448043_0044_20040915_231808p.mb57.gz 7.45MB Simrad multibeam processing format
20070727102449044_0045_20040916_001808p.mb57.gz 7.28MB Simrad multibeam processing format
20070727102449045_0046_20040916_011808p.mb57.gz 7.26MB Simrad multibeam processing format
20070727102451046_0047_20040916_021808p.mb57.gz 7.38MB Simrad multibeam processing format
20070727102451047_0048_20040916_031808p.mb57.gz 7.29MB Simrad multibeam processing format
20070727102452048_0049_20040916_041808p.mb57.gz 0.51MB Simrad multibeam processing format
20070727102452049_0050_20040916_044857p.mb57.gz 3.95MB Simrad multibeam processing format
20070727102453050_0051_20040916_054857p.mb57.gz 4.06MB Simrad multibeam processing format
20070727102453051_0052_20040916_064857p.mb57.gz 4.06MB Simrad multibeam processing format
20070727102454052_0053_20040916_074857p.mb57.gz 4.09MB Simrad multibeam processing format
20070727102454053_0054_20040916_084857p.mb57.gz 4.20MB Simrad multibeam processing format
20070727102456054_0055_20040916_094857p.mb57.gz 4.11MB Simrad multibeam processing format
20070727102456055_0056_20040916_104857p.mb57.gz 4.14MB Simrad multibeam processing format
20070727102457056_0057_20040916_114857p.mb57.gz 4.09MB Simrad multibeam processing format
20070727102457057_0058_20040916_124857p.mb57.gz 7.51MB Simrad multibeam processing format
20070727102458058_0059_20040916_134857p.mb57.gz 7.56MB Simrad multibeam processing format
20070727102458059_0060_20040916_144858p.mb57.gz 7.63MB Simrad multibeam processing format
20070727102459060_0061_20040916_154858p.mb57.gz 7.57MB Simrad multibeam processing format
20070727102459061_0062_20040916_164858p.mb57.gz 7.61MB Simrad multibeam processing format
20070727102459062_0063_20040916_174858p.mb57.gz 7.54MB Simrad multibeam processing format
20070727102501063_0064_20040916_184858p.mb57.gz 7.59MB Simrad multibeam processing format
20070727102502064_0065_20040916_194858p.mb57.gz 7.42MB Simrad multibeam processing format
20070727102502065_0066_20040916_204858p.mb57.gz 7.64MB Simrad multibeam processing format
20070727102503066_0067_20040916_214858p.mb57.gz 3.14MB Simrad multibeam processing format
20070727102503067_0068_20040916_221411p.mb57.gz 7.73MB Simrad multibeam processing format
20070727102503068_0069_20040916_231411p.mb57.gz 7.56MB Simrad multibeam processing format
20070727102504069_0070_20040917_001412p.mb57.gz 8.00MB Simrad multibeam processing format
20070727102504070_0071_20040917_011412p.mb57.gz 7.63MB Simrad multibeam processing format
20070727102506071_0072_20040917_021412p.mb57.gz 7.81MB Simrad multibeam processing format
20070727102506072_0073_20040917_031412p.mb57.gz 7.74MB Simrad multibeam processing format
20070727102506073_0074_20040917_041412p.mb57.gz 7.75MB Simrad multibeam processing format
20070727102507074_0075_20040917_051412p.mb57.gz 7.77MB Simrad multibeam processing format
20070727102507075_0076_20040917_061412p.mb57.gz 7.70MB Simrad multibeam processing format
20070727102508076_0077_20040917_071412p.mb57.gz 7.67MB Simrad multibeam processing format
20070727102508077_0078_20040917_081412p.mb57.gz 7.62MB Simrad multibeam processing format
20070727102509078_0079_20040917_091412p.mb57.gz 7.66MB Simrad multibeam processing format
20070727102510079_0080_20040917_101412p.mb57.gz 7.78MB Simrad multibeam processing format
20070727102511080_0081_20040917_111412p.mb57.gz 7.60MB Simrad multibeam processing format
20070727102511081_0082_20040917_121412p.mb57.gz 7.67MB Simrad multibeam processing format
20070727102512082_0083_20040917_131413p.mb57.gz 7.53MB Simrad multibeam processing format
20070727102512083_0084_20040917_141413p.mb57.gz 7.62MB Simrad multibeam processing format
20070727102513084_0085_20040917_151413p.mb57.gz 7.58MB Simrad multibeam processing format
20070727102513085_0086_20040917_161413p.mb57.gz 7.58MB Simrad multibeam processing format
20070727102514086_0087_20040917_171413p.mb57.gz 7.59MB Simrad multibeam processing format
20070727102514087_0088_20040917_181413p.mb57.gz 7.51MB Simrad multibeam processing format
20070727102515088_0089_20040917_191413p.mb57.gz 7.49MB Simrad multibeam processing format
20070727102516089_0090_20040917_201413p.mb57.gz 7.51MB Simrad multibeam processing format
20070727102517090_0091_20040917_211413p.mb57.gz 7.47MB Simrad multibeam processing format
20070727102517091_0093_20040917_221757p.mb57.gz 7.47MB Simrad multibeam processing format
20070727102518092_0094_20040917_231757p.mb57.gz 7.46MB Simrad multibeam processing format
20070727102518093_0095_20040918_001757p.mb57.gz 7.58MB Simrad multibeam processing format
20070727102519094_0096_20040918_011758p.mb57.gz 7.50MB Simrad multibeam processing format
20070727102519095_0097_20040918_021758p.mb57.gz 7.50MB Simrad multibeam processing format
20070727102520096_0098_20040918_031758p.mb57.gz 7.53MB Simrad multibeam processing format
20070727102521097_0099_20040918_041758p.mb57.gz 7.52MB Simrad multibeam processing format
20070727102521098_0100_20040918_051758p.mb57.gz 7.51MB Simrad multibeam processing format
20070727102522099_0101_20040918_061758p.mb57.gz 7.50MB Simrad multibeam processing format
20070727102522100_0102_20040918_071758p.mb57.gz 7.55MB Simrad multibeam processing format
20070727102523101_0103_20040918_081758p.mb57.gz 7.46MB Simrad multibeam processing format
20070727102523102_0104_20040918_091758p.mb57.gz 7.38MB Simrad multibeam processing format
20070727102524103_0105_20040918_101758p.mb57.gz 7.49MB Simrad multibeam processing format
20070727102524104_0106_20040918_111758p.mb57.gz 7.45MB Simrad multibeam processing format
20070727102526105_0107_20040918_121758p.mb57.gz 7.45MB Simrad multibeam processing format
20070727102526106_0108_20040918_131758p.mb57.gz 7.84MB Simrad multibeam processing format
20070727102527107_0109_20040918_141759p.mb57.gz 8.62MB Simrad multibeam processing format
20070727102527108_0110_20040918_151759p.mb57.gz 7.45MB Simrad multibeam processing format
20070727102528109_0111_20040918_161759p.mb57.gz 7.47MB Simrad multibeam processing format
20070727102528110_0112_20040918_171759p.mb57.gz 7.57MB Simrad multibeam processing format
20070727102528111_0113_20040918_181759p.mb57.gz 7.62MB Simrad multibeam processing format
20070727102529112_0114_20040918_191759p.mb57.gz 7.47MB Simrad multibeam processing format
20070727102529113_0115_20040918_201759p.mb57.gz 7.43MB Simrad multibeam processing format
20070727102531114_0116_20040918_211759p.mb57.gz 7.47MB Simrad multibeam processing format
20070727102531115_0117_20040918_221759p.mb57.gz 2.70MB Simrad multibeam processing format
20070727102532116_0118_20040918_223928p.mb57.gz 7.63MB Simrad multibeam processing format
20070727102532117_0119_20040918_233928p.mb57.gz 7.73MB Simrad multibeam processing format
20070727102533118_0120_20040919_003928p.mb57.gz 7.65MB Simrad multibeam processing format
20070727102533119_0121_20040919_013928p.mb57.gz 7.61MB Simrad multibeam processing format
20070727102534120_0122_20040919_023928p.mb57.gz 7.60MB Simrad multibeam processing format
20070727102534121_0123_20040919_033928p.mb57.gz 7.65MB Simrad multibeam processing format
20070727102536122_0124_20040919_043928p.mb57.gz 7.56MB Simrad multibeam processing format
20070727102536123_0125_20040919_053929p.mb57.gz 7.67MB Simrad multibeam processing format
20070727102537124_0126_20040919_063929p.mb57.gz 8.22MB Simrad multibeam processing format
20070727102537125_0127_20040919_073929p.mb57.gz 7.76MB Simrad multibeam processing format
20070727102537126_0128_20040919_083929p.mb57.gz 7.82MB Simrad multibeam processing format
20070727102538127_0129_20040919_093929p.mb57.gz 7.52MB Simrad multibeam processing format
20070727102538128_0130_20040919_103929p.mb57.gz 7.51MB Simrad multibeam processing format
20070727102539129_0131_20040919_113929p.mb57.gz 7.55MB Simrad multibeam processing format
20070727102539130_0132_20040919_123929p.mb57.gz 7.58MB Simrad multibeam processing format
20070727102541131_0133_20040919_133929p.mb57.gz 7.63MB Simrad multibeam processing format
20070727102542132_0134_20040919_143929p.mb57.gz 7.62MB Simrad multibeam processing format
20070727102542133_0135_20040919_153929p.mb57.gz 7.54MB Simrad multibeam processing format
20070727102543134_0136_20040919_163929p.mb57.gz 7.64MB Simrad multibeam processing format
20070727102543135_0137_20040919_173930p.mb57.gz 7.65MB Simrad multibeam processing format
20070727102544136_0138_20040919_183930p.mb57.gz 7.58MB Simrad multibeam processing format
20070727102544137_0139_20040919_193930p.mb57.gz 7.51MB Simrad multibeam processing format
20070727102544138_0140_20040919_203930p.mb57.gz 7.54MB Simrad multibeam processing format
20070727102546139_0141_20040919_213930p.mb57.gz 7.21MB Simrad multibeam processing format
20070727102546140_0142_20040919_223616p.mb57.gz 7.55MB Simrad multibeam processing format
20070727102547141_0143_20040919_233614p.mb57.gz 7.65MB Simrad multibeam processing format
20070727102547142_0144_20040920_003614p.mb57.gz 7.64MB Simrad multibeam processing format
20070727102547143_0145_20040920_013614p.mb57.gz 7.65MB Simrad multibeam processing format
20070727102548144_0146_20040920_023614p.mb57.gz 7.58MB Simrad multibeam processing format
20070727102548145_0147_20040920_033614p.mb57.gz 7.59MB Simrad multibeam processing format
20070727102549146_0148_20040920_043614p.mb57.gz 7.60MB Simrad multibeam processing format
20070727102549147_0149_20040920_053615p.mb57.gz 7.61MB Simrad multibeam processing format
20070727102551148_0150_20040920_063615p.mb57.gz 7.68MB Simrad multibeam processing format
20070727102551149_0151_20040920_073615p.mb57.gz 7.63MB Simrad multibeam processing format
20070727102552150_0152_20040920_083615p.mb57.gz 7.69MB Simrad multibeam processing format
20070727102552151_0153_20040920_093615p.mb57.gz 7.59MB Simrad multibeam processing format
20070727102552152_0154_20040920_103615p.mb57.gz 7.60MB Simrad multibeam processing format
20070727102553153_0155_20040920_113615p.mb57.gz 7.65MB Simrad multibeam processing format
20070727102554154_0156_20040920_123615p.mb57.gz 7.64MB Simrad multibeam processing format
20070727102554155_0157_20040920_133615p.mb57.gz 7.62MB Simrad multibeam processing format
20070727102554156_0158_20040920_143615p.mb57.gz 7.65MB Simrad multibeam processing format
20070727102556157_0159_20040920_153615p.mb57.gz 7.64MB Simrad multibeam processing format
20070727102556158_0160_20040920_163615p.mb57.gz 7.55MB Simrad multibeam processing format
20070727102557159_0161_20040920_173616p.mb57.gz 7.47MB Simrad multibeam processing format
20070727102558160_0162_20040920_183616p.mb57.gz 7.46MB Simrad multibeam processing format
20070727102558161_0163_20040920_193616p.mb57.gz 7.61MB Simrad multibeam processing format
20070727102558162_0164_20040920_203616p.mb57.gz 8.08MB Simrad multibeam processing format
20070727102559163_0165_20040920_213616p.mb57.gz 7.63MB Simrad multibeam processing format
20070727102559164_0166_20040920_223101p.mb57.gz 8.25MB Simrad multibeam processing format
20070727102601165_0167_20040920_233101p.mb57.gz 7.52MB Simrad multibeam processing format
20070727102601166_0168_20040921_003101p.mb57.gz 7.51MB Simrad multibeam processing format
20070727102602167_0170_20040921_013311p.mb57.gz 7.55MB Simrad multibeam processing format
20070727102603168_0171_20040921_023311p.mb57.gz 7.66MB Simrad multibeam processing format
20070727102603169_0172_20040921_033311p.mb57.gz 7.65MB Simrad multibeam processing format
20070727102603170_0173_20040921_043312p.mb57.gz 7.62MB Simrad multibeam processing format
20070727102604171_0174_20040921_053312p.mb57.gz 7.49MB Simrad multibeam processing format
20070727102604172_0175_20040921_063312p.mb57.gz 7.59MB Simrad multibeam processing format
20070727102606173_0176_20040921_073312p.mb57.gz 7.53MB Simrad multibeam processing format
20070727102606174_0177_20040921_083312p.mb57.gz 7.58MB Simrad multibeam processing format
20070727102607175_0178_20040921_093312p.mb57.gz 7.53MB Simrad multibeam processing format
20070727102607176_0179_20040921_103312p.mb57.gz 7.86MB Simrad multibeam processing format
20070727102608177_0180_20040921_113312p.mb57.gz 8.44MB Simrad multibeam processing format
20070727102608178_0181_20040921_123312p.mb57.gz 7.84MB Simrad multibeam processing format
20070727102608179_0182_20040921_133312p.mb57.gz 7.58MB Simrad multibeam processing format
20070727102609180_0183_20040921_143312p.mb57.gz 7.37MB Simrad multibeam processing format
20070727102611181_0184_20040921_153312p.mb57.gz 7.40MB Simrad multibeam processing format
20070727102611182_0185_20040921_163312p.mb57.gz 7.50MB Simrad multibeam processing format
20070727102612183_0186_20040921_173313p.mb57.gz 7.59MB Simrad multibeam processing format
20070727102612184_0187_20040921_183313p.mb57.gz 7.60MB Simrad multibeam processing format
20070727102612185_0188_20040921_193313p.mb57.gz 7.49MB Simrad multibeam processing format
20070727102613186_0189_20040921_203313p.mb57.gz 7.55MB Simrad multibeam processing format
20070727102614187_0190_20040921_213313p.mb57.gz 6.62MB Simrad multibeam processing format
20070727102614188_0191_20040921_222628p.mb57.gz 7.44MB Simrad multibeam processing format
20070727102616189_0192_20040921_232628p.mb57.gz 7.49MB Simrad multibeam processing format
20070727102616190_0193_20040922_002628p.mb57.gz 7.44MB Simrad multibeam processing format
20070727102616191_0194_20040922_012629p.mb57.gz 7.55MB Simrad multibeam processing format
20070727102617192_0195_20040922_022629p.mb57.gz 7.66MB Simrad multibeam processing format
20070727102618193_0196_20040922_032629p.mb57.gz 7.63MB Simrad multibeam processing format
20070727102618194_0197_20040922_042629p.mb57.gz 7.52MB Simrad multibeam processing format
20070727102618195_0198_20040922_052629p.mb57.gz 7.51MB Simrad multibeam processing format
20070727102619196_0199_20040922_062629p.mb57.gz 7.54MB Simrad multibeam processing format
20070727102619197_0200_20040922_072629p.mb57.gz 7.52MB Simrad multibeam processing format
20070727102621198_0201_20040922_082629p.mb57.gz 7.50MB Simrad multibeam processing format
20070727102622199_0202_20040922_092629p.mb57.gz 7.50MB Simrad multibeam processing format
20070727102622200_0203_20040922_102629p.mb57.gz 7.61MB Simrad multibeam processing format
20070727102623201_0204_20040922_112629p.mb57.gz 7.60MB Simrad multibeam processing format
20070727102623202_0205_20040922_122629p.mb57.gz 7.54MB Simrad multibeam processing format
20070727102624203_0206_20040922_132630p.mb57.gz 7.61MB Simrad multibeam processing format
20070727102624204_0207_20040922_142630p.mb57.gz 7.60MB Simrad multibeam processing format
20070727102625205_0208_20040922_152630p.mb57.gz 7.58MB Simrad multibeam processing format
20070727102626206_0209_20040922_162630p.mb57.gz 7.59MB Simrad multibeam processing format
20070727102626207_0210_20040922_172630p.mb57.gz 7.52MB Simrad multibeam processing format
20070727102627208_0211_20040922_182630p.mb57.gz 7.59MB Simrad multibeam processing format
20070727102627209_0212_20040922_192630p.mb57.gz 7.63MB Simrad multibeam processing format
20070727102628210_0213_20040922_202630p.mb57.gz 7.52MB Simrad multibeam processing format
20070727102628211_0214_20040922_212630p.mb57.gz 7.64MB Simrad multibeam processing format
20070727102628212_0215_20040922_222630p.mb57.gz 1.56MB Simrad multibeam processing format
20070727102629213_0216_20040922_223853p.mb57.gz 7.47MB Simrad multibeam processing format
20070727102631214_0217_20040922_233853p.mb57.gz 7.55MB Simrad multibeam processing format
20070727102631215_0218_20040923_003853p.mb57.gz 7.54MB Simrad multibeam processing format
20070727102632216_0219_20040923_013853p.mb57.gz 7.53MB Simrad multibeam processing format
20070727102632217_0220_20040923_023853p.mb57.gz 7.52MB Simrad multibeam processing format
20070727102632218_0221_20040923_033853p.mb57.gz 7.60MB Simrad multibeam processing format
20070727102633219_0222_20040923_043853p.mb57.gz 7.65MB Simrad multibeam processing format
20070727102634220_0223_20040923_053853p.mb57.gz 7.53MB Simrad multibeam processing format
20070727102634221_0224_20040923_063853p.mb57.gz 7.54MB Simrad multibeam processing format
20070727102636222_0225_20040923_073853p.mb57.gz 7.65MB Simrad multibeam processing format
20070727102636223_0226_20040923_083853p.mb57.gz 7.56MB Simrad multibeam processing format
20070727102637224_0227_20040923_093854p.mb57.gz 7.49MB Simrad multibeam processing format
20070727102637225_0228_20040923_103854p.mb57.gz 7.54MB Simrad multibeam processing format
20070727102638226_0229_20040923_113854p.mb57.gz 7.53MB Simrad multibeam processing format
20070727102638227_0230_20040923_123854p.mb57.gz 7.58MB Simrad multibeam processing format
20070727102639228_0231_20040923_133854p.mb57.gz 7.64MB Simrad multibeam processing format
20070727102639229_0232_20040923_143854p.mb57.gz 7.63MB Simrad multibeam processing format
20070727102639230_0233_20040923_153854p.mb57.gz 7.64MB Simrad multibeam processing format
20070727102641231_0234_20040923_163854p.mb57.gz 7.62MB Simrad multibeam processing format
20070727102642232_0235_20040923_173854p.mb57.gz 7.57MB Simrad multibeam processing format
20070727102643233_0236_20040923_183854p.mb57.gz 7.53MB Simrad multibeam processing format
20070727102643234_0237_20040923_193854p.mb57.gz 7.50MB Simrad multibeam processing format
20070727102644235_0238_20040923_203854p.mb57.gz 7.49MB Simrad multibeam processing format
20070727102644236_0239_20040923_213855p.mb57.gz 7.41MB Simrad multibeam processing format
20070727102644237_0240_20040923_223812p.mb57.gz 7.49MB Simrad multibeam processing format
20070727102646238_0241_20040923_233812p.mb57.gz 7.51MB Simrad multibeam processing format
20070727102647239_0242_20040924_003812p.mb57.gz 7.58MB Simrad multibeam processing format
20070727102647240_0243_20040924_013812p.mb57.gz 7.61MB Simrad multibeam processing format
20070727102648241_0244_20040924_023812p.mb57.gz 7.53MB Simrad multibeam processing format
20070727102648242_0245_20040924_033812p.mb57.gz 7.58MB Simrad multibeam processing format
20070727102648243_0246_20040924_043812p.mb57.gz 7.61MB Simrad multibeam processing format
20070727102649244_0247_20040924_053812p.mb57.gz 7.63MB Simrad multibeam processing format
20070727102649245_0248_20040924_063812p.mb57.gz 7.62MB Simrad multibeam processing format
20070727102651246_0249_20040924_073812p.mb57.gz 7.64MB Simrad multibeam processing format
20070727102651247_0250_20040924_083812p.mb57.gz 7.62MB Simrad multibeam processing format
20070727102652248_0251_20040924_093812p.mb57.gz 7.63MB Simrad multibeam processing format
20070727102652249_0252_20040924_103812p.mb57.gz 7.55MB Simrad multibeam processing format
20070727102652250_0253_20040924_113813p.mb57.gz 7.48MB Simrad multibeam processing format
20070727102653251_0254_20040924_123813p.mb57.gz 7.44MB Simrad multibeam processing format
20070727102654252_0255_20040924_133813p.mb57.gz 7.48MB Simrad multibeam processing format
20070727102654253_0256_20040924_143813p.mb57.gz 8.10MB Simrad multibeam processing format
20070727102656254_0257_20040924_153813p.mb57.gz 7.81MB Simrad multibeam processing format
20070727102656255_0258_20040924_163813p.mb57.gz 7.86MB Simrad multibeam processing format
20070727102657256_0259_20040924_173813p.mb57.gz 7.56MB Simrad multibeam processing format
20070727102657257_0260_20040924_183813p.mb57.gz 7.64MB Simrad multibeam processing format
20070727102658258_0261_20040924_193813p.mb57.gz 7.55MB Simrad multibeam processing format
20070727102658259_0262_20040924_203813p.mb57.gz 7.45MB Simrad multibeam processing format
20070727102659260_0263_20040924_213813p.mb57.gz 7.26MB Simrad multibeam processing format
20070727102659261_0264_20040924_223803p.mb57.gz 7.21MB Simrad multibeam processing format
20070727102701262_0265_20040924_233803p.mb57.gz 7.30MB Simrad multibeam processing format
20070727102702263_0266_20040925_003803p.mb57.gz 7.13MB Simrad multibeam processing format
20070727102703264_0267_20040925_013803p.mb57.gz 7.10MB Simrad multibeam processing format
20070727102703265_0268_20040925_023804p.mb57.gz 7.13MB Simrad multibeam processing format
20070727102704266_0269_20040925_033804p.mb57.gz 7.43MB Simrad multibeam processing format
20070727102704267_0270_20040925_043804p.mb57.gz 7.56MB Simrad multibeam processing format
20070727102705268_0271_20040925_053804p.mb57.gz 7.23MB Simrad multibeam processing format
20070727102706269_0272_20040925_063804p.mb57.gz 7.33MB Simrad multibeam processing format
20070727102706270_0273_20040925_073804p.mb57.gz 7.18MB Simrad multibeam processing format
20070727102707271_0274_20040925_083804p.mb57.gz 7.30MB Simrad multibeam processing format
20070727102707272_0275_20040925_093804p.mb57.gz 7.30MB Simrad multibeam processing format
20070727102708273_0276_20040925_103804p.mb57.gz 7.26MB Simrad multibeam processing format
20070727102708274_0277_20040925_113804p.mb57.gz 7.21MB Simrad multibeam processing format
20070727102708275_0278_20040925_123804p.mb57.gz 7.26MB Simrad multibeam processing format
20070727102709276_0279_20040925_133804p.mb57.gz 7.16MB Simrad multibeam processing format
20070727102710277_0280_20040925_143805p.mb57.gz 7.22MB Simrad multibeam processing format
20070727102711278_0281_20040925_153805p.mb57.gz 7.21MB Simrad multibeam processing format
20070727102711279_0282_20040925_163805p.mb57.gz 7.00MB Simrad multibeam processing format
20070727102712280_0283_20040925_173805p.mb57.gz 6.98MB Simrad multibeam processing format
20070727102712281_0284_20040925_183805p.mb57.gz 7.03MB Simrad multibeam processing format
20070727102713282_0285_20040925_193805p.mb57.gz 7.17MB Simrad multibeam processing format
20070727102713283_0286_20040925_203805p.mb57.gz 7.28MB Simrad multibeam processing format
20070727102714284_0287_20040925_213805p.mb57.gz 4.95MB Simrad multibeam processing format
20070727102714285_0288_20040925_221812p.mb57.gz 7.35MB Simrad multibeam processing format
20070727102716286_0289_20040925_231812p.mb57.gz 7.20MB Simrad multibeam processing format
20070727102716287_0290_20040926_001812p.mb57.gz 7.35MB Simrad multibeam processing format
20070727102717288_0291_20040926_011812p.mb57.gz 7.39MB Simrad multibeam processing format
20070727102717289_0292_20040926_021812p.mb57.gz 7.44MB Simrad multibeam processing format
20070727102718290_0293_20040926_031812p.mb57.gz 7.47MB Simrad multibeam processing format
20070727102719291_0294_20040926_041812p.mb57.gz 7.44MB Simrad multibeam processing format
20070727102719292_0295_20040926_051812p.mb57.gz 7.39MB Simrad multibeam processing format
20070727102719293_0296_20040926_061812p.mb57.gz 7.50MB Simrad multibeam processing format
20070727102721294_0297_20040926_071813p.mb57.gz 7.48MB Simrad multibeam processing format
20070727102721295_0298_20040926_081813p.mb57.gz 7.50MB Simrad multibeam processing format
20070727102722296_0299_20040926_091813p.mb57.gz 7.52MB Simrad multibeam processing format
20070727102722297_0300_20040926_101813p.mb57.gz 7.35MB Simrad multibeam processing format
20070727102723298_0301_20040926_111813p.mb57.gz 7.49MB Simrad multibeam processing format
20070727102723299_0302_20040926_121813p.mb57.gz 7.44MB Simrad multibeam processing format
20070727102724300_0303_20040926_131813p.mb57.gz 7.54MB Simrad multibeam processing format
20070727102724301_0304_20040926_141813p.mb57.gz 7.49MB Simrad multibeam processing format
20070727102726302_0305_20040926_151813p.mb57.gz 7.59MB Simrad multibeam processing format
20070727102726303_0306_20040926_161813p.mb57.gz 7.50MB Simrad multibeam processing format
20070727102727304_0307_20040926_171813p.mb57.gz 1.38MB Simrad multibeam processing format
20070727102727305_0308_20040926_191952p.mb57.gz 7.50MB Simrad multibeam processing format
20070727102728306_0309_20040926_201952p.mb57.gz 7.56MB Simrad multibeam processing format
20070727102728307_0310_20040926_211952p.mb57.gz 7.67MB Simrad multibeam processing format
20070727102728308_0312_20040926_222408p.mb57.gz 7.53MB Simrad multibeam processing format
20070727102729309_0313_20040926_232408p.mb57.gz 7.51MB Simrad multibeam processing format
20070727102731310_0314_20040927_002408p.mb57.gz 7.53MB Simrad multibeam processing format
20070727102731311_0315_20040927_012408p.mb57.gz 7.54MB Simrad multibeam processing format
20070727102732312_0316_20040927_022408p.mb57.gz 7.56MB Simrad multibeam processing format
20070727102732313_0317_20040927_032408p.mb57.gz 7.50MB Simrad multibeam processing format
20070727102733314_0318_20040927_042408p.mb57.gz 7.54MB Simrad multibeam processing format
20070727102734315_0319_20040927_052409p.mb57.gz 7.52MB Simrad multibeam processing format
20070727102734316_0320_20040927_062409p.mb57.gz 7.53MB Simrad multibeam processing format
20070727102736317_0321_20040927_072409p.mb57.gz 7.46MB Simrad multibeam processing format
20070727102736318_0322_20040927_082409p.mb57.gz 7.49MB Simrad multibeam processing format
20070727102737319_0323_20040927_092409p.mb57.gz 7.49MB Simrad multibeam processing format
20070727102738320_0324_20040927_102409p.mb57.gz 7.48MB Simrad multibeam processing format
20070727102738321_0325_20040927_112409p.mb57.gz 7.47MB Simrad multibeam processing format
20070727102738322_0326_20040927_122409p.mb57.gz 7.51MB Simrad multibeam processing format
20070727102739323_0327_20040927_132409p.mb57.gz 7.44MB Simrad multibeam processing format
20070727102739324_0328_20040927_142409p.mb57.gz 7.40MB Simrad multibeam processing format
20070727102741325_0329_20040927_152409p.mb57.gz 7.48MB Simrad multibeam processing format
20070727102742326_0330_20040927_162409p.mb57.gz 7.41MB Simrad multibeam processing format
20070727102742327_0331_20040927_172409p.mb57.gz 7.49MB Simrad multibeam processing format
20070727102743328_0332_20040927_182410p.mb57.gz 7.35MB Simrad multibeam processing format
20070727102743329_0333_20040927_192410p.mb57.gz 7.38MB Simrad multibeam processing format
20070727102743330_0334_20040927_202410p.mb57.gz 7.45MB Simrad multibeam processing format
20070727102744331_0335_20040927_212410p.mb57.gz 7.40MB Simrad multibeam processing format
20070727102744332_0336_20040927_222410p.mb57.gz 1.56MB Simrad multibeam processing format
20070727102746333_0337_20040927_223642p.mb57.gz 7.40MB Simrad multibeam processing format
20070727102746334_0338_20040927_233642p.mb57.gz 7.46MB Simrad multibeam processing format
20070727102747335_0339_20040928_003642p.mb57.gz 7.40MB Simrad multibeam processing format
20070727102747336_0340_20040928_013642p.mb57.gz 7.49MB Simrad multibeam processing format
20070727102747337_0341_20040928_023642p.mb57.gz 7.47MB Simrad multibeam processing format
20070727102748338_0342_20040928_033642p.mb57.gz 7.49MB Simrad multibeam processing format
20070727102748339_0343_20040928_043642p.mb57.gz 7.49MB Simrad multibeam processing format
20070727102749340_0344_20040928_053642p.mb57.gz 7.54MB Simrad multibeam processing format
20070727102751341_0345_20040928_063642p.mb57.gz 7.50MB Simrad multibeam processing format
20070727102751342_0346_20040928_073643p.mb57.gz 7.51MB Simrad multibeam processing format
20070727102752343_0347_20040928_083643p.mb57.gz 7.46MB Simrad multibeam processing format
20070727102752344_0348_20040928_093643p.mb57.gz 7.52MB Simrad multibeam processing format
20070727102753345_0349_20040928_103643p.mb57.gz 7.50MB Simrad multibeam processing format
20070727102754346_0350_20040928_113643p.mb57.gz 7.47MB Simrad multibeam processing format
20070727102754347_0351_20040928_123643p.mb57.gz 7.50MB Simrad multibeam processing format
20070727102755348_0352_20040928_133643p.mb57.gz 7.36MB Simrad multibeam processing format
20070727102756349_0353_20040928_143643p.mb57.gz 7.43MB Simrad multibeam processing format
20070727102756350_0354_20040928_153643p.mb57.gz 7.43MB Simrad multibeam processing format
20070727102757351_0355_20040928_163643p.mb57.gz 7.40MB Simrad multibeam processing format
20070727102757352_0356_20040928_173643p.mb57.gz 7.38MB Simrad multibeam processing format
20070727102758353_0357_20040928_183643p.mb57.gz 7.44MB Simrad multibeam processing format
20070727102758354_0358_20040928_193644p.mb57.gz 7.48MB Simrad multibeam processing format
20070727102759355_0359_20040928_203644p.mb57.gz 7.47MB Simrad multibeam processing format
20070727102759356_0360_20040928_213644p.mb57.gz 3.63MB Simrad multibeam processing format
20070727102759357_0361_20040928_220617p.mb57.gz 7.37MB Simrad multibeam processing format
20070727102801358_0362_20040928_230617p.mb57.gz 7.44MB Simrad multibeam processing format
20070727102802359_0363_20040929_000617p.mb57.gz 7.50MB Simrad multibeam processing format
20070727102803360_0364_20040929_010617p.mb57.gz 7.55MB Simrad multibeam processing format
20070727102803361_0365_20040929_020617p.mb57.gz 7.51MB Simrad multibeam processing format
20070727102804362_0366_20040929_030617p.mb57.gz 7.63MB Simrad multibeam processing format
20070727102804363_0367_20040929_040617p.mb57.gz 7.57MB Simrad multibeam processing format
20070727102806364_0368_20040929_050617p.mb57.gz 7.47MB Simrad multibeam processing format
20070727102807365_0369_20040929_060618p.mb57.gz 7.47MB Simrad multibeam processing format
20070727102807366_0370_20040929_070618p.mb57.gz 7.44MB Simrad multibeam processing format
20070727102807367_0371_20040929_080618p.mb57.gz 7.42MB Simrad multibeam processing format
20070727102808368_0372_20040929_090618p.mb57.gz 7.42MB Simrad multibeam processing format
20070727102808369_0373_20040929_100618p.mb57.gz 7.76MB Simrad multibeam processing format
20070727102809370_0374_20040929_110618p.mb57.gz 3.91MB Simrad multibeam processing format
20070727102809371_0375_20040929_120618p.mb57.gz 4.27MB Simrad multibeam processing format
20070727102811372_0376_20040929_130618p.mb57.gz 4.34MB Simrad multibeam processing format
20070727102811373_0377_20040929_140618p.mb57.gz 4.24MB Simrad multibeam processing format
20070727102812374_0378_20040929_150618p.mb57.gz 4.04MB Simrad multibeam processing format
20070727102812375_0379_20040929_160618p.mb57.gz 4.04MB Simrad multibeam processing format
20070727102813376_0380_20040929_170618p.mb57.gz 4.27MB Simrad multibeam processing format
20070727102813377_0381_20040929_180618p.mb57.gz 4.22MB Simrad multibeam processing format
20070727102814378_0382_20040929_190619p.mb57.gz 4.32MB Simrad multibeam processing format
20070727102816379_0383_20040929_200619p.mb57.gz 7.84MB Simrad multibeam processing format
20070727102816380_0384_20040929_210619p.mb57.gz 7.70MB Simrad multibeam processing format
20070727102817381_0385_20040929_220619p.mb57.gz 7.63MB Simrad multibeam processing format
20070727102817382_0386_20040929_230619p.mb57.gz 2.39MB Simrad multibeam processing format
20070727102818383_0387_20040929_232544p.mb57.gz 7.43MB Simrad multibeam processing format
20070727102818384_0388_20040930_002544p.mb57.gz 7.59MB Simrad multibeam processing format
20070727102819385_0389_20040930_012544p.mb57.gz 7.58MB Simrad multibeam processing format
20070727102819386_0390_20040930_022544p.mb57.gz 7.42MB Simrad multibeam processing format
20070727102819387_0391_20040930_032544p.mb57.gz 7.51MB Simrad multibeam processing format
20070727102821388_0392_20040930_042544p.mb57.gz 7.62MB Simrad multibeam processing format
20070727102822389_0393_20040930_052544p.mb57.gz 7.53MB Simrad multibeam processing format
20070727102822390_0394_20040930_062544p.mb57.gz 7.70MB Simrad multibeam processing format
20070727102823391_0395_20040930_072544p.mb57.gz 7.64MB Simrad multibeam processing format
20070727102823392_0396_20040930_082544p.mb57.gz 7.61MB Simrad multibeam processing format
20070727102824393_0397_20040930_092544p.mb57.gz 7.70MB Simrad multibeam processing format
20070727102824394_0398_20040930_102544p.mb57.gz 7.39MB Simrad multibeam processing format
20070727102824395_0399_20040930_112544p.mb57.gz 7.49MB Simrad multibeam processing format
20070727102826396_0400_20040930_122544p.mb57.gz 7.60MB Simrad multibeam processing format
20070727102827397_0401_20040930_132544p.mb57.gz 7.61MB Simrad multibeam processing format
20070727102827398_0402_20040930_142544p.mb57.gz 7.76MB Simrad multibeam processing format
20070727102828399_0403_20040930_152544p.mb57.gz 7.65MB Simrad multibeam processing format
20070727102828400_0404_20040930_162545p.mb57.gz 7.77MB Simrad multibeam processing format
20070727102828401_0405_20040930_172545p.mb57.gz 7.74MB Simrad multibeam processing format
20070727102829402_0406_20040930_182545p.mb57.gz 7.73MB Simrad multibeam processing format
20070727102829403_0407_20040930_192545p.mb57.gz 7.67MB Simrad multibeam processing format
20070727102831404_0408_20040930_202545p.mb57.gz 7.75MB Simrad multibeam processing format
20070727102831405_0409_20040930_212545p.mb57.gz 6.98MB Simrad multibeam processing format
20070727102832406_0410_20040930_222005p.mb57.gz 4.10MB Simrad multibeam processing format
20070727102832407_0411_20040930_232005p.mb57.gz 4.30MB Simrad multibeam processing format
20070727102833408_0412_20041001_002005p.mb57.gz 4.29MB Simrad multibeam processing format
20070727102833409_0413_20041001_012005p.mb57.gz 4.25MB Simrad multibeam processing format
20070727102834410_0414_20041001_022005p.mb57.gz 4.13MB Simrad multibeam processing format
20070727102834411_0415_20041001_032005p.mb57.gz 4.12MB Simrad multibeam processing format
20070727102836412_0416_20041001_042005p.mb57.gz 4.00MB Simrad multibeam processing format
20070727102836413_0417_20041001_052005p.mb57.gz 4.28MB Simrad multibeam processing format
20070727102837414_0418_20041001_062005p.mb57.gz 4.41MB Simrad multibeam processing format
20070727102838415_0419_20041001_072006p.mb57.gz 4.38MB Simrad multibeam processing format
20070727102838416_0420_20041001_082006p.mb57.gz 4.14MB Simrad multibeam processing format
20070727102839417_0421_20041001_092006p.mb57.gz 3.96MB Simrad multibeam processing format
20070727102839418_0422_20041001_102006p.mb57.gz 4.31MB Simrad multibeam processing format
20070727102841419_0423_20041001_112006p.mb57.gz 4.33MB Simrad multibeam processing format
20070727102841420_0424_20041001_122006p.mb57.gz 4.20MB Simrad multibeam processing format
20070727102842421_0425_20041001_132006p.mb57.gz 4.18MB Simrad multibeam processing format
20070727102843422_0426_20041001_142006p.mb57.gz 4.17MB Simrad multibeam processing format
20070727102843423_0427_20041001_152006p.mb57.gz 4.33MB Simrad multibeam processing format
20070727102844424_0428_20041001_162006p.mb57.gz 4.43MB Simrad multibeam processing format
20070727102844425_0429_20041001_172006p.mb57.gz 4.36MB Simrad multibeam processing format
20070727102845426_0430_20041001_182006p.mb57.gz 4.10MB Simrad multibeam processing format
20070727102846427_0431_20041001_192006p.mb57.gz 3.86MB Simrad multibeam processing format
20070727102847428_0432_20041001_202006p.mb57.gz 3.96MB Simrad multibeam processing format
20070727102847429_0433_20041001_212006p.mb57.gz 3.91MB Simrad multibeam processing format
20070727102848430_0434_20041001_222006p.mb57.gz 1.23MB Simrad multibeam processing format
20070727102848431_0435_20041001_223939p.mb57.gz 3.78MB Simrad multibeam processing format
20070727102848432_0436_20041001_233939p.mb57.gz 3.88MB Simrad multibeam processing format
20070727102849433_0437_20041002_003939p.mb57.gz 3.95MB Simrad multibeam processing format
20070727102849434_0438_20041002_013939p.mb57.gz 3.87MB Simrad multibeam processing format
20070727102851435_0439_20041002_023939p.mb57.gz 3.79MB Simrad multibeam processing format
20070727102851436_0440_20041002_033939p.mb57.gz 3.86MB Simrad multibeam processing format
20070727102852437_0441_20041002_043939p.mb57.gz 3.74MB Simrad multibeam processing format
20070727102852438_0442_20041002_053939p.mb57.gz 3.76MB Simrad multibeam processing format
20070727102852439_0443_20041002_063939p.mb57.gz 3.75MB Simrad multibeam processing format
20070727102853440_0444_20041002_073917p.mb57.gz 3.83MB Simrad multibeam processing format
20070727102853441_0445_20041002_083940p.mb57.gz 3.91MB Simrad multibeam processing format
20070727102854442_0446_20041002_093940p.mb57.gz 3.92MB Simrad multibeam processing format
20070727102854443_0447_20041002_103940p.mb57.gz 3.90MB Simrad multibeam processing format
20070727102856444_0448_20041002_113940p.mb57.gz 3.84MB Simrad multibeam processing format
20070727102856445_0449_20041002_123940p.mb57.gz 3.67MB Simrad multibeam processing format
20070727102857446_0450_20041002_133940p.mb57.gz 3.77MB Simrad multibeam processing format
20070727102857447_0451_20041002_143940p.mb57.gz 3.71MB Simrad multibeam processing format
20070727102858448_0452_20041002_153940p.mb57.gz 3.85MB Simrad multibeam processing format
20070727102858449_0453_20041002_163940p.mb57.gz 3.80MB Simrad multibeam processing format
20070727102859450_0454_20041002_173940p.mb57.gz 3.72MB Simrad multibeam processing format
20070727102859451_0455_20041002_183940p.mb57.gz 3.65MB Simrad multibeam processing format
20070727102901452_0456_20041002_193940p.mb57.gz 3.73MB Simrad multibeam processing format
20070727102901453_0457_20041002_203940p.mb57.gz 3.77MB Simrad multibeam processing format
20070727102902454_0458_20041002_213940p.mb57.gz 3.64MB Simrad multibeam processing format
20070727102902455_0459_20041002_223940p.mb57.gz 1.72MB Simrad multibeam processing format
20070727102903456_0460_20041002_230721p.mb57.gz 3.68MB Simrad multibeam processing format
20070727102903457_0461_20041003_000721p.mb57.gz 3.74MB Simrad multibeam processing format
20070727102904458_0462_20041003_010721p.mb57.gz 3.79MB Simrad multibeam processing format
20070727102904459_0463_20041003_020721p.mb57.gz 3.94MB Simrad multibeam processing format
20070727102904460_0464_20041003_030721p.mb57.gz 3.88MB Simrad multibeam processing format
20070727102906461_0465_20041003_040721p.mb57.gz 3.87MB Simrad multibeam processing format
20070727102907462_0466_20041003_050721p.mb57.gz 3.90MB Simrad multibeam processing format
20070727102907463_0467_20041003_060721p.mb57.gz 3.78MB Simrad multibeam processing format
20070727102908464_0468_20041003_070722p.mb57.gz 3.87MB Simrad multibeam processing format
20070727102908465_0469_20041003_080722p.mb57.gz 3.92MB Simrad multibeam processing format
20070727102908466_0470_20041003_090722p.mb57.gz 3.90MB Simrad multibeam processing format
20070727102909467_0471_20041003_100722p.mb57.gz 3.90MB Simrad multibeam processing format
20070727102909468_0472_20041003_110722p.mb57.gz 3.92MB Simrad multibeam processing format
20070727102911469_0473_20041003_120722p.mb57.gz 3.89MB Simrad multibeam processing format
20070727102911470_0474_20041003_130722p.mb57.gz 4.00MB Simrad multibeam processing format
20070727102912471_0475_20041003_140722p.mb57.gz 4.10MB Simrad multibeam processing format
20070727102912472_0476_20041003_150722p.mb57.gz 4.09MB Simrad multibeam processing format
20070727102913473_0477_20041003_160722p.mb57.gz 4.15MB Simrad multibeam processing format
20070727102913474_0478_20041003_170722p.mb57.gz 4.16MB Simrad multibeam processing format
20070727102913475_0479_20041003_180722p.mb57.gz 4.31MB Simrad multibeam processing format
20070727102914476_0480_20041003_190722p.mb57.gz 4.41MB Simrad multibeam processing format
20070727102916477_0481_20041003_200722p.mb57.gz 4.44MB Simrad multibeam processing format
20070727102916478_0482_20041003_210722p.mb57.gz 4.61MB Simrad multibeam processing format
20070727102917479_0483_20041003_220722p.mb57.gz 3.54MB Simrad multibeam processing format
20070727102917480_0486_20041004_005234p.mb57.gz 5.00MB Simrad multibeam processing format
20070727102918481_0487_20041004_015234p.mb57.gz 4.90MB Simrad multibeam processing format
20070727102918482_0488_20041004_025234p.mb57.gz 5.78MB Simrad multibeam processing format
20070727102919483_0489_20041004_035234p.mb57.gz 9.27MB Simrad multibeam processing format
20070727102920484_0490_20041004_045234p.mb57.gz 8.69MB Simrad multibeam processing format
20070727102921485_0491_20041004_055234p.mb57.gz 9.71MB Simrad multibeam processing format
20070727102922486_0492_20041004_065235p.mb57.gz 6.96MB Simrad multibeam processing format
20070727102922487_0493_20041004_075235p.mb57.gz 5.37MB Simrad multibeam processing format
20070727102923488_0494_20041004_085235p.mb57.gz 4.88MB Simrad multibeam processing format
20070727102924489_0495_20041004_095235p.mb57.gz 4.69MB Simrad multibeam processing format
20070727102924490_0496_20041004_105235p.mb57.gz 5.02MB Simrad multibeam processing format
20070727102926491_0497_20041004_115235p.mb57.gz 4.58MB Simrad multibeam processing format
20070727102927492_0498_20041004_125235p.mb57.gz 4.55MB Simrad multibeam processing format
20070727102927493_0499_20041004_135235p.mb57.gz 4.58MB Simrad multibeam processing format
20070727102927494_0500_20041004_145235p.mb57.gz 5.29MB Simrad multibeam processing format
20070727102928495_0501_20041004_155235p.mb57.gz 4.76MB Simrad multibeam processing format
20070727102928496_0502_20041004_165235p.mb57.gz 4.65MB Simrad multibeam processing format
20070727102929497_0503_20041004_175235p.mb57.gz 5.13MB Simrad multibeam processing format
20070727102929498_0504_20041004_185235p.mb57.gz 4.68MB Simrad multibeam processing format
20070727102931499_0505_20041004_195235p.mb57.gz 5.13MB Simrad multibeam processing format
20070727102932500_0506_20041004_205235p.mb57.gz 4.57MB Simrad multibeam processing format
20070727102932501_0507_20041004_215235p.mb57.gz 3.50MB Simrad multibeam processing format
20070727102932502_0508_20041004_224212p.mb57.gz 4.43MB Simrad multibeam processing format
20070727102933503_0509_20041004_234212p.mb57.gz 4.78MB Simrad multibeam processing format
20070727102933504_0510_20041005_004212p.mb57.gz 4.76MB Simrad multibeam processing format
20070727102934505_0511_20041005_014212p.mb57.gz 4.89MB Simrad multibeam processing format
20070727102935506_0512_20041005_024212p.mb57.gz 5.62MB Simrad multibeam processing format
20070727102936507_0513_20041005_034212p.mb57.gz 7.53MB Simrad multibeam processing format
20070727102937508_0514_20041005_044212p.mb57.gz 5.45MB Simrad multibeam processing format
20070727102937509_0515_20041005_054212p.mb57.gz 4.78MB Simrad multibeam processing format
20070727102938510_0516_20041005_064213p.mb57.gz 4.56MB Simrad multibeam processing format
20070727102938511_0517_20041005_074213p.mb57.gz 4.51MB Simrad multibeam processing format
20070727102939512_0518_20041005_084213p.mb57.gz 4.59MB Simrad multibeam processing format
20070727102940513_0519_20041005_094213p.mb57.gz 4.94MB Simrad multibeam processing format
20070727102941514_0520_20041005_104213p.mb57.gz 5.48MB Simrad multibeam processing format
20070727102941515_0521_20041005_114213p.mb57.gz 4.98MB Simrad multibeam processing format
20070727102942516_0522_20041005_124213p.mb57.gz 4.70MB Simrad multibeam processing format
20070727102943517_0523_20041005_134213p.mb57.gz 4.52MB Simrad multibeam processing format
20070727102944518_0524_20041005_144213p.mb57.gz 4.46MB Simrad multibeam processing format
20070727102944519_0525_20041005_154213p.mb57.gz 4.49MB Simrad multibeam processing format
20070727102945520_0526_20041005_164213p.mb57.gz 4.51MB Simrad multibeam processing format
20070727102946521_0527_20041005_174213p.mb57.gz 4.56MB Simrad multibeam processing format
20070727102947522_0528_20041005_184213p.mb57.gz 4.36MB Simrad multibeam processing format
20070727102948523_0529_20041005_194213p.mb57.gz 4.46MB Simrad multibeam processing format
20070727102948524_0530_20041005_204213p.mb57.gz 4.41MB Simrad multibeam processing format
20070727102948525_0531_20041005_214213p.mb57.gz 3.64MB Simrad multibeam processing format
20070727102949526_0532_20041005_223339p.mb57.gz 4.23MB Simrad multibeam processing format
20070727102949527_0533_20041005_233339p.mb57.gz 4.28MB Simrad multibeam processing format
20070727102951528_0534_20041006_003339p.mb57.gz 4.16MB Simrad multibeam processing format
20070727102951529_0535_20041006_013339p.mb57.gz 4.16MB Simrad multibeam processing format
20070727102952530_0536_20041006_023339p.mb57.gz 4.11MB Simrad multibeam processing format
20070727102952531_0537_20041006_033340p.mb57.gz 4.18MB Simrad multibeam processing format
20070727102952532_0538_20041006_043340p.mb57.gz 4.29MB Simrad multibeam processing format
20070727102953533_0539_20041006_053340p.mb57.gz 4.19MB Simrad multibeam processing format
20070727102953534_0540_20041006_063340p.mb57.gz 4.64MB Simrad multibeam processing format
20070727102954535_0541_20041006_073340p.mb57.gz 4.69MB Simrad multibeam processing format
20070727102955536_0542_20041006_083340p.mb57.gz 4.51MB Simrad multibeam processing format
20070727102956537_0543_20041006_093340p.mb57.gz 4.08MB Simrad multibeam processing format
20070727102956538_0544_20041006_103340p.mb57.gz 4.23MB Simrad multibeam processing format
20070727102957539_0545_20041006_113340p.mb57.gz 4.25MB Simrad multibeam processing format
20070727102957540_0546_20041006_123340p.mb57.gz 4.15MB Simrad multibeam processing format
20070727102958541_0547_20041006_133340p.mb57.gz 4.22MB Simrad multibeam processing format
20070727102959542_0548_20041006_143340p.mb57.gz 4.56MB Simrad multibeam processing format
20070727102959543_0549_20041006_153340p.mb57.gz 4.24MB Simrad multibeam processing format
20070727103001544_0550_20041006_163340p.mb57.gz 4.18MB Simrad multibeam processing format
20070727103001545_0551_20041006_173340p.mb57.gz 4.26MB Simrad multibeam processing format
20070727103002546_0552_20041006_183340p.mb57.gz 4.21MB Simrad multibeam processing format
20070727103003547_0553_20041006_193341p.mb57.gz 4.21MB Simrad multibeam processing format
20070727103003548_0554_20041006_203341p.mb57.gz 4.23MB Simrad multibeam processing format
20070727103004549_0555_20041006_213341p.mb57.gz 4.25MB Simrad multibeam processing format
20070727103004550_0556_20041006_223341p.mb57.gz 2.41MB Simrad multibeam processing format
20070727103004551_0557_20041006_230835p.mb57.gz 4.37MB Simrad multibeam processing format
20070727103006552_0558_20041007_000835p.mb57.gz 4.03MB Simrad multibeam processing format
20070727103006553_0559_20041007_010835p.mb57.gz 4.12MB Simrad multibeam processing format
20070727103007554_0560_20041007_020835p.mb57.gz 4.18MB Simrad multibeam processing format
20070727103007555_0561_20041007_030835p.mb57.gz 4.46MB Simrad multibeam processing format
20070727103008556_0562_20041007_040835p.mb57.gz 4.68MB Simrad multibeam processing format
20070727103008557_0563_20041007_050835p.mb57.gz 5.81MB Simrad multibeam processing format
20070727103009558_0564_20041007_060835p.mb57.gz 8.57MB Simrad multibeam processing format
20070727103009559_0565_20041007_070835p.mb57.gz 4.92MB Simrad multibeam processing format
20070727103011560_0566_20041007_080835p.mb57.gz 4.96MB Simrad multibeam processing format
20070727103012561_0567_20041007_090835p.mb57.gz 10.70MB Simrad multibeam processing format
20070727103012562_0568_20041007_100835p.mb57.gz 9.80MB Simrad multibeam processing format
20070727103013563_0569_20041007_110835p.mb57.gz 4.93MB Simrad multibeam processing format
20070727103013564_0570_20041007_120835p.mb57.gz 4.72MB Simrad multibeam processing format
20070727103014565_0571_20041007_130836p.mb57.gz 6.77MB Simrad multibeam processing format
20070727103016566_0572_20041007_140836p.mb57.gz 9.87MB Simrad multibeam processing format
20070727103017567_0573_20041007_150836p.mb57.gz 5.91MB Simrad multibeam processing format
20070727103017568_0574_20041007_160836p.mb57.gz 8.47MB Simrad multibeam processing format
20070727103018569_0575_20041007_170836p.mb57.gz 4.95MB Simrad multibeam processing format
20070727103018570_0576_20041007_180836p.mb57.gz 4.97MB Simrad multibeam processing format
20070727103019571_0577_20041007_190836p.mb57.gz 4.59MB Simrad multibeam processing format
20070727103020572_0578_20041007_200836p.mb57.gz 4.44MB Simrad multibeam processing format
20070727103021573_0579_20041007_210836p.mb57.gz 4.97MB Simrad multibeam processing format
20070727103021574_0580_20041007_220836p.mb57.gz 5.63MB Simrad multibeam processing format
20070727103022575_0581_20041007_230836p.mb57.gz 4.45MB Simrad multibeam processing format
20070727103023576_0582_20041008_000836p.mb57.gz 4.62MB Simrad multibeam processing format
20070727103023577_0583_20041008_010836p.mb57.gz 6.70MB Simrad multibeam processing format
20070727103024578_0584_20041008_020836p.mb57.gz 11.23MB Simrad multibeam processing format
20070727103024579_0585_20041008_030836p.mb57.gz 6.34MB Simrad multibeam processing format
20070727103026580_0586_20041008_040836p.mb57.gz 5.35MB Simrad multibeam processing format
20070727103027581_0587_20041008_050837p.mb57.gz 4.84MB Simrad multibeam processing format
20070727103027582_0588_20041008_060837p.mb57.gz 4.89MB Simrad multibeam processing format
20070727103028583_0589_20041008_070837p.mb57.gz 4.67MB Simrad multibeam processing format
20070727103028584_0590_20041008_080837p.mb57.gz 4.81MB Simrad multibeam processing format
20070727103029585_0591_20041008_090837p.mb57.gz 4.86MB Simrad multibeam processing format
20070727103029586_0592_20041008_100837p.mb57.gz 4.79MB Simrad multibeam processing format
20070727103030587_0593_20041008_110837p.mb57.gz 4.83MB Simrad multibeam processing format
20070727103031588_0594_20041008_120837p.mb57.gz 4.84MB Simrad multibeam processing format
20070727103032589_0595_20041008_130837p.mb57.gz 4.81MB Simrad multibeam processing format
20070727103032590_0596_20041008_140837p.mb57.gz 4.82MB Simrad multibeam processing format
20070727103033591_0597_20041008_150837p.mb57.gz 4.53MB Simrad multibeam processing format
20070727103033592_0598_20041008_160837p.mb57.gz 4.09MB Simrad multibeam processing format
20070727103033593_0599_20041008_170837p.mb57.gz 4.00MB Simrad multibeam processing format
20070727103034594_0600_20041008_180837p.mb57.gz 0.71MB Simrad multibeam processing format

Metadata Files: 596

Files File Size Description
KRUS05RR_Multibeam.xml NGDC created ISO metadata
20070727102423001_0001_20040914_051619p.mb57.mif 9.4KB Metadata I?? File for each individual data file
20070727102424002_0002_20040914_061619p.mb57.mif 9.4KB Metadata I?? File for each individual data file
20070727102424003_0003_20040914_071619p.mb57.mif 9.4KB Metadata I?? File for each individual data file
20070727102425004_0004_20040914_081619p.mb57.mif 9.4KB Metadata I?? File for each individual data file
20070727102426005_0005_20040914_091619p.mb57.mif 9.4KB Metadata I?? File for each individual data file
20070727102426006_0006_20040914_101619p.mb57.mif 9.4KB Metadata I?? File for each individual data file
20070727102426007_0007_20040914_111619p.mb57.mif 9.4KB Metadata I?? File for each individual data file
20070727102427008_0008_20040914_121619p.mb57.mif 9.4KB Metadata I?? File for each individual data file
20070727102427009_0009_20040914_131619p.mb57.mif 9.4KB Metadata I?? File for each individual data file
20070727102428010_0010_20040914_141619p.mb57.mif 9.4KB Metadata I?? File for each individual data file
20070727102428011_0011_20040914_151619p.mb57.mif 9.4KB Metadata I?? File for each individual data file
20070727102429012_0012_20040914_161619p.mb57.mif 9.4KB Metadata I?? File for each individual data file
20070727102430013_0013_20040914_171620p.mb57.mif 9.4KB Metadata I?? File for each individual data file
20070727102431014_0014_20040914_181620p.mb57.mif 9.4KB Metadata I?? File for each individual data file
20070727102431015_0015_20040914_191620p.mb57.mif 9.4KB Metadata I?? File for each individual data file
20070727102432016_0016_20040914_201620p.mb57.mif 9.4KB Metadata I?? File for each individual data file
20070727102433017_0017_20040914_211620p.mb57.mif 9.4KB Metadata I?? File for each individual data file
20070727102433018_0019_20040914_222119p.mb57.mif 9.4KB Metadata I?? File for each individual data file
20070727102434019_0020_20040914_232119p.mb57.mif 9.4KB Metadata I?? File for each individual data file
20070727102434020_0021_20040915_002120p.mb57.mif 9.4KB Metadata I?? File for each individual data file
20070727102435021_0022_20040915_012120p.mb57.mif 9.4KB Metadata I?? File for each individual data file
20070727102436022_0023_20040915_022120p.mb57.mif 9.4KB Metadata I?? File for each individual data file
20070727102437023_0024_20040915_032120p.mb57.mif 9.4KB Metadata I?? File for each individual data file
20070727102437024_0025_20040915_042120p.mb57.mif 9.4KB Metadata I?? File for each individual data file
20070727102438025_0026_20040915_052120p.mb57.mif 9.4KB Metadata I?? File for each individual data file
20070727102438026_0027_20040915_062120p.mb57.mif 9.4KB Metadata I?? File for each individual data file
20070727102438027_0028_20040915_072120p.mb57.mif 9.4KB Metadata I?? File for each individual data file
20070727102439028_0029_20040915_082120p.mb57.mif 9.4KB Metadata I?? File for each individual data file
20070727102439029_0030_20040915_092120p.mb57.mif 9.4KB Metadata I?? File for each individual data file
20070727102441030_0031_20040915_102120p.mb57.mif 9.4KB Metadata I?? File for each individual data file
20070727102442031_0032_20040915_112120p.mb57.mif 9.4KB Metadata I?? File for each individual data file
20070727102442032_0033_20040915_122121p.mb57.mif 9.4KB Metadata I?? File for each individual data file
20070727102442033_0034_20040915_132121p.mb57.mif 9.4KB Metadata I?? File for each individual data file
20070727102443034_0035_20040915_142121p.mb57.mif 9.4KB Metadata I?? File for each individual data file
20070727102443035_0036_20040915_152121p.mb57.mif 9.4KB Metadata I?? File for each individual data file
20070727102444036_0037_20040915_162121p.mb57.mif 9.4KB Metadata I?? File for each individual data file
20070727102444037_0038_20040915_172121p.mb57.mif 9.4KB Metadata I?? File for each individual data file
20070727102446038_0039_20040915_182121p.mb57.mif 9.4KB Metadata I?? File for each individual data file
20070727102446039_0040_20040915_192121p.mb57.mif 9.4KB Metadata I?? File for each individual data file
20070727102446040_0041_20040915_202121p.mb57.mif 9.4KB Metadata I?? File for each individual data file
20070727102447041_0042_20040915_212121p.mb57.mif 9.4KB Metadata I?? File for each individual data file
20070727102447042_0043_20040915_221808p.mb57.mif 9.4KB Metadata I?? File for each individual data file
20070727102448043_0044_20040915_231808p.mb57.mif 9.4KB Metadata I?? File for each individual data file
20070727102449044_0045_20040916_001808p.mb57.mif 9.4KB Metadata I?? File for each individual data file
20070727102449045_0046_20040916_011808p.mb57.mif 9.4KB Metadata I?? File for each individual data file
20070727102451046_0047_20040916_021808p.mb57.mif 9.4KB Metadata I?? File for each individual data file
20070727102451047_0048_20040916_031808p.mb57.mif 9.4KB Metadata I?? File for each individual data file
20070727102452048_0049_20040916_041808p.mb57.mif 9.4KB Metadata I?? File for each individual data file
20070727102452049_0050_20040916_044857p.mb57.mif 9.4KB Metadata I?? File for each individual data file
20070727102453050_0051_20040916_054857p.mb57.mif 9.4KB Metadata I?? File for each individual data file
20070727102453051_0052_20040916_064857p.mb57.mif 9.4KB Metadata I?? File for each individual data file
20070727102454052_0053_20040916_074857p.mb57.mif 9.4KB Metadata I?? File for each individual data file
20070727102454053_0054_20040916_084857p.mb57.mif 9.4KB Metadata I?? File for each individual data file
20070727102456054_0055_20040916_094857p.mb57.mif 9.4KB Metadata I?? File for each individual data file
20070727102456055_0056_20040916_104857p.mb57.mif 9.4KB Metadata I?? File for each individual data file
20070727102457056_0057_20040916_114857p.mb57.mif 9.4KB Metadata I?? File for each individual data file
20070727102457057_0058_20040916_124857p.mb57.mif 9.4KB Metadata I?? File for each individual data file
20070727102458058_0059_20040916_134857p.mb57.mif 9.4KB Metadata I?? File for each individual data file
20070727102458059_0060_20040916_144858p.mb57.mif 9.4KB Metadata I?? File for each individual data file
20070727102459060_0061_20040916_154858p.mb57.mif 9.4KB Metadata I?? File for each individual data file
20070727102459061_0062_20040916_164858p.mb57.mif 9.4KB Metadata I?? File for each individual data file
20070727102459062_0063_20040916_174858p.mb57.mif 9.4KB Metadata I?? File for each individual data file
20070727102501063_0064_20040916_184858p.mb57.mif 9.4KB Metadata I?? File for each individual data file
20070727102502064_0065_20040916_194858p.mb57.mif 9.4KB Metadata I?? File for each individual data file
20070727102502065_0066_20040916_204858p.mb57.mif 9.4KB Metadata I?? File for each individual data file
20070727102503066_0067_20040916_214858p.mb57.mif 9.4KB Metadata I?? File for each individual data file
20070727102503067_0068_20040916_221411p.mb57.mif 9.4KB Metadata I?? File for each individual data file
20070727102503068_0069_20040916_231411p.mb57.mif 9.4KB Metadata I?? File for each individual data file
20070727102504069_0070_20040917_001412p.mb57.mif 9.4KB Metadata I?? File for each individual data file
20070727102504070_0071_20040917_011412p.mb57.mif 9.4KB Metadata I?? File for each individual data file
20070727102506071_0072_20040917_021412p.mb57.mif 9.4KB Metadata I?? File for each individual data file
20070727102506072_0073_20040917_031412p.mb57.mif 9.4KB Metadata I?? File for each individual data file
20070727102506073_0074_20040917_041412p.mb57.mif 9.4KB Metadata I?? File for each individual data file
20070727102507074_0075_20040917_051412p.mb57.mif 9.4KB Metadata I?? File for each individual data file
20070727102507075_0076_20040917_061412p.mb57.mif 9.4KB Metadata I?? File for each individual data file
20070727102508076_0077_20040917_071412p.mb57.mif 9.4KB Metadata I?? File for each individual data file
20070727102508077_0078_20040917_081412p.mb57.mif 9.4KB Metadata I?? File for each individual data file
20070727102509078_0079_20040917_091412p.mb57.mif 9.4KB Metadata I?? File for each individual data file
20070727102510079_0080_20040917_101412p.mb57.mif 9.4KB Metadata I?? File for each individual data file
20070727102511080_0081_20040917_111412p.mb57.mif 9.4KB Metadata I?? File for each individual data file
20070727102511081_0082_20040917_121412p.mb57.mif 9.4KB Metadata I?? File for each individual data file
20070727102512082_0083_20040917_131413p.mb57.mif 9.4KB Metadata I?? File for each individual data file
20070727102512083_0084_20040917_141413p.mb57.mif 9.4KB Metadata I?? File for each individual data file
20070727102513084_0085_20040917_151413p.mb57.mif 9.4KB Metadata I?? File for each individual data file
20070727102513085_0086_20040917_161413p.mb57.mif 9.4KB Metadata I?? File for each individual data file
20070727102514086_0087_20040917_171413p.mb57.mif 9.4KB Metadata I?? File for each individual data file
20070727102514087_0088_20040917_181413p.mb57.mif 9.4KB Metadata I?? File for each individual data file
20070727102515088_0089_20040917_191413p.mb57.mif 9.4KB Metadata I?? File for each individual data file
20070727102516089_0090_20040917_201413p.mb57.mif 9.4KB Metadata I?? File for each individual data file
20070727102517090_0091_20040917_211413p.mb57.mif 9.4KB Metadata I?? File for each individual data file
20070727102517091_0093_20040917_221757p.mb57.mif 9.4KB Metadata I?? File for each individual data file
20070727102518092_0094_20040917_231757p.mb57.mif 9.4KB Metadata I?? File for each individual data file
20070727102518093_0095_20040918_001757p.mb57.mif 9.4KB Metadata I?? File for each individual data file
20070727102519094_0096_20040918_011758p.mb57.mif 9.4KB Metadata I?? File for each individual data file
20070727102519095_0097_20040918_021758p.mb57.mif 9.4KB Metadata I?? File for each individual data file
20070727102520096_0098_20040918_031758p.mb57.mif 9.4KB Metadata I?? File for each individual data file
20070727102521097_0099_20040918_041758p.mb57.mif 9.4KB Metadata I?? File for each individual data file
20070727102521098_0100_20040918_051758p.mb57.mif 9.4KB Metadata I?? File for each individual data file
20070727102522099_0101_20040918_061758p.mb57.mif 9.4KB Metadata I?? File for each individual data file
20070727102522100_0102_20040918_071758p.mb57.mif 9.4KB Metadata I?? File for each individual data file
20070727102523101_0103_20040918_081758p.mb57.mif 9.4KB Metadata I?? File for each individual data file
20070727102523102_0104_20040918_091758p.mb57.mif 9.4KB Metadata I?? File for each individual data file
20070727102524103_0105_20040918_101758p.mb57.mif 9.4KB Metadata I?? File for each individual data file
20070727102524104_0106_20040918_111758p.mb57.mif 9.4KB Metadata I?? File for each individual data file
20070727102526105_0107_20040918_121758p.mb57.mif 9.4KB Metadata I?? File for each individual data file
20070727102526106_0108_20040918_131758p.mb57.mif 9.4KB Metadata I?? File for each individual data file
20070727102527107_0109_20040918_141759p.mb57.mif 9.4KB Metadata I?? File for each individual data file
20070727102527108_0110_20040918_151759p.mb57.mif 9.4KB Metadata I?? File for each individual data file
20070727102528109_0111_20040918_161759p.mb57.mif 9.4KB Metadata I?? File for each individual data file
20070727102528110_0112_20040918_171759p.mb57.mif 9.4KB Metadata I?? File for each individual data file
20070727102528111_0113_20040918_181759p.mb57.mif 9.4KB Metadata I?? File for each individual data file
20070727102529112_0114_20040918_191759p.mb57.mif 9.4KB Metadata I?? File for each individual data file
20070727102529113_0115_20040918_201759p.mb57.mif 9.4KB Metadata I?? File for each individual data file
20070727102531114_0116_20040918_211759p.mb57.mif 9.4KB Metadata I?? File for each individual data file
20070727102531115_0117_20040918_221759p.mb57.mif 9.4KB Metadata I?? File for each individual data file
20070727102532116_0118_20040918_223928p.mb57.mif 9.4KB Metadata I?? File for each individual data file
20070727102532117_0119_20040918_233928p.mb57.mif 9.4KB Metadata I?? File for each individual data file
20070727102533118_0120_20040919_003928p.mb57.mif 9.4KB Metadata I?? File for each individual data file
20070727102533119_0121_20040919_013928p.mb57.mif 9.4KB Metadata I?? File for each individual data file
20070727102534120_0122_20040919_023928p.mb57.mif 9.4KB Metadata I?? File for each individual data file
20070727102534121_0123_20040919_033928p.mb57.mif 9.4KB Metadata I?? File for each individual data file
20070727102536122_0124_20040919_043928p.mb57.mif 9.4KB Metadata I?? File for each individual data file
20070727102536123_0125_20040919_053929p.mb57.mif 9.4KB Metadata I?? File for each individual data file
20070727102537124_0126_20040919_063929p.mb57.mif 9.4KB Metadata I?? File for each individual data file
20070727102537125_0127_20040919_073929p.mb57.mif 9.4KB Metadata I?? File for each individual data file
20070727102537126_0128_20040919_083929p.mb57.mif 9.4KB Metadata I?? File for each individual data file
20070727102538127_0129_20040919_093929p.mb57.mif 9.4KB Metadata I?? File for each individual data file
20070727102538128_0130_20040919_103929p.mb57.mif 9.4KB Metadata I?? File for each individual data file
20070727102539129_0131_20040919_113929p.mb57.mif 9.4KB Metadata I?? File for each individual data file
20070727102539130_0132_20040919_123929p.mb57.mif 9.4KB Metadata I?? File for each individual data file
20070727102541131_0133_20040919_133929p.mb57.mif 9.4KB Metadata I?? File for each individual data file
20070727102542132_0134_20040919_143929p.mb57.mif 9.4KB Metadata I?? File for each individual data file
20070727102542133_0135_20040919_153929p.mb57.mif 9.4KB Metadata I?? File for each individual data file
20070727102543134_0136_20040919_163929p.mb57.mif 9.4KB Metadata I?? File for each individual data file
20070727102543135_0137_20040919_173930p.mb57.mif 9.4KB Metadata I?? File for each individual data file
20070727102544136_0138_20040919_183930p.mb57.mif 9.4KB Metadata I?? File for each individual data file
20070727102544137_0139_20040919_193930p.mb57.mif 9.4KB Metadata I?? File for each individual data file
20070727102544138_0140_20040919_203930p.mb57.mif 9.4KB Metadata I?? File for each individual data file
20070727102546139_0141_20040919_213930p.mb57.mif 9.4KB Metadata I?? File for each individual data file
20070727102546140_0142_20040919_223616p.mb57.mif 9.4KB Metadata I?? File for each individual data file
20070727102547141_0143_20040919_233614p.mb57.mif 9.4KB Metadata I?? File for each individual data file
20070727102547142_0144_20040920_003614p.mb57.mif 9.4KB Metadata I?? File for each individual data file
20070727102547143_0145_20040920_013614p.mb57.mif 9.4KB Metadata I?? File for each individual data file
20070727102548144_0146_20040920_023614p.mb57.mif 9.4KB Metadata I?? File for each individual data file
20070727102548145_0147_20040920_033614p.mb57.mif 9.4KB Metadata I?? File for each individual data file
20070727102549146_0148_20040920_043614p.mb57.mif 9.4KB Metadata I?? File for each individual data file
20070727102549147_0149_20040920_053615p.mb57.mif 9.4KB Metadata I?? File for each individual data file
20070727102551148_0150_20040920_063615p.mb57.mif 9.4KB Metadata I?? File for each individual data file
20070727102551149_0151_20040920_073615p.mb57.mif 9.4KB Metadata I?? File for each individual data file
20070727102552150_0152_20040920_083615p.mb57.mif 9.4KB Metadata I?? File for each individual data file
20070727102552151_0153_20040920_093615p.mb57.mif 9.4KB Metadata I?? File for each individual data file
20070727102552152_0154_20040920_103615p.mb57.mif 9.4KB Metadata I?? File for each individual data file
20070727102553153_0155_20040920_113615p.mb57.mif 9.4KB Metadata I?? File for each individual data file
20070727102554154_0156_20040920_123615p.mb57.mif 9.4KB Metadata I?? File for each individual data file
20070727102554155_0157_20040920_133615p.mb57.mif 9.4KB Metadata I?? File for each individual data file
20070727102554156_0158_20040920_143615p.mb57.mif 9.4KB Metadata I?? File for each individual data file
20070727102556157_0159_20040920_153615p.mb57.mif 9.4KB Metadata I?? File for each individual data file
20070727102556158_0160_20040920_163615p.mb57.mif 9.4KB Metadata I?? File for each individual data file
20070727102557159_0161_20040920_173616p.mb57.mif 9.4KB Metadata I?? File for each individual data file
20070727102558160_0162_20040920_183616p.mb57.mif 9.4KB Metadata I?? File for each individual data file
20070727102558161_0163_20040920_193616p.mb57.mif 9.4KB Metadata I?? File for each individual data file
20070727102558162_0164_20040920_203616p.mb57.mif 9.4KB Metadata I?? File for each individual data file
20070727102559163_0165_20040920_213616p.mb57.mif 9.4KB Metadata I?? File for each individual data file
20070727102559164_0166_20040920_223101p.mb57.mif 9.4KB Metadata I?? File for each individual data file
20070727102601165_0167_20040920_233101p.mb57.mif 9.4KB Metadata I?? File for each individual data file
20070727102601166_0168_20040921_003101p.mb57.mif 9.4KB Metadata I?? File for each individual data file
20070727102602167_0170_20040921_013311p.mb57.mif 9.4KB Metadata I?? File for each individual data file
20070727102603168_0171_20040921_023311p.mb57.mif 9.4KB Metadata I?? File for each individual data file
20070727102603169_0172_20040921_033311p.mb57.mif 9.4KB Metadata I?? File for each individual data file
20070727102603170_0173_20040921_043312p.mb57.mif 9.4KB Metadata I?? File for each individual data file
20070727102604171_0174_20040921_053312p.mb57.mif 9.4KB Metadata I?? File for each individual data file
20070727102604172_0175_20040921_063312p.mb57.mif 9.4KB Metadata I?? File for each individual data file
20070727102606173_0176_20040921_073312p.mb57.mif 9.4KB Metadata I?? File for each individual data file
20070727102606174_0177_20040921_083312p.mb57.mif 9.4KB Metadata I?? File for each individual data file
20070727102607175_0178_20040921_093312p.mb57.mif 9.4KB Metadata I?? File for each individual data file
20070727102607176_0179_20040921_103312p.mb57.mif 9.4KB Metadata I?? File for each individual data file
20070727102608177_0180_20040921_113312p.mb57.mif 9.4KB Metadata I?? File for each individual data file
20070727102608178_0181_20040921_123312p.mb57.mif 9.4KB Metadata I?? File for each individual data file
20070727102608179_0182_20040921_133312p.mb57.mif 9.4KB Metadata I?? File for each individual data file
20070727102609180_0183_20040921_143312p.mb57.mif 9.4KB Metadata I?? File for each individual data file
20070727102611181_0184_20040921_153312p.mb57.mif 9.4KB Metadata I?? File for each individual data file
20070727102611182_0185_20040921_163312p.mb57.mif 9.4KB Metadata I?? File for each individual data file
20070727102612183_0186_20040921_173313p.mb57.mif 9.4KB Metadata I?? File for each individual data file
20070727102612184_0187_20040921_183313p.mb57.mif 9.4KB Metadata I?? File for each individual data file
20070727102612185_0188_20040921_193313p.mb57.mif 9.4KB Metadata I?? File for each individual data file
20070727102613186_0189_20040921_203313p.mb57.mif 9.4KB Metadata I?? File for each individual data file
20070727102614187_0190_20040921_213313p.mb57.mif 9.4KB Metadata I?? File for each individual data file
20070727102614188_0191_20040921_222628p.mb57.mif 9.4KB Metadata I?? File for each individual data file
20070727102616189_0192_20040921_232628p.mb57.mif 9.4KB Metadata I?? File for each individual data file
20070727102616190_0193_20040922_002628p.mb57.mif 9.4KB Metadata I?? File for each individual data file
20070727102616191_0194_20040922_012629p.mb57.mif 9.4KB Metadata I?? File for each individual data file
20070727102617192_0195_20040922_022629p.mb57.mif 9.4KB Metadata I?? File for each individual data file
20070727102618193_0196_20040922_032629p.mb57.mif 9.4KB Metadata I?? File for each individual data file
20070727102618194_0197_20040922_042629p.mb57.mif 9.4KB Metadata I?? File for each individual data file
20070727102618195_0198_20040922_052629p.mb57.mif 9.4KB Metadata I?? File for each individual data file
20070727102619196_0199_20040922_062629p.mb57.mif 9.4KB Metadata I?? File for each individual data file
20070727102619197_0200_20040922_072629p.mb57.mif 9.4KB Metadata I?? File for each individual data file
20070727102621198_0201_20040922_082629p.mb57.mif 9.4KB Metadata I?? File for each individual data file
20070727102622199_0202_20040922_092629p.mb57.mif 9.4KB Metadata I?? File for each individual data file
20070727102622200_0203_20040922_102629p.mb57.mif 9.4KB Metadata I?? File for each individual data file
20070727102623201_0204_20040922_112629p.mb57.mif 9.4KB Metadata I?? File for each individual data file
20070727102623202_0205_20040922_122629p.mb57.mif 9.4KB Metadata I?? File for each individual data file
20070727102624203_0206_20040922_132630p.mb57.mif 9.4KB Metadata I?? File for each individual data file
20070727102624204_0207_20040922_142630p.mb57.mif 9.4KB Metadata I?? File for each individual data file
20070727102625205_0208_20040922_152630p.mb57.mif 9.4KB Metadata I?? File for each individual data file
20070727102626206_0209_20040922_162630p.mb57.mif 9.4KB Metadata I?? File for each individual data file
20070727102626207_0210_20040922_172630p.mb57.mif 9.4KB Metadata I?? File for each individual data file
20070727102627208_0211_20040922_182630p.mb57.mif 9.4KB Metadata I?? File for each individual data file
20070727102627209_0212_20040922_192630p.mb57.mif 9.4KB Metadata I?? File for each individual data file
20070727102628210_0213_20040922_202630p.mb57.mif 9.4KB Metadata I?? File for each individual data file
20070727102628211_0214_20040922_212630p.mb57.mif 9.4KB Metadata I?? File for each individual data file
20070727102628212_0215_20040922_222630p.mb57.mif 9.4KB Metadata I?? File for each individual data file
20070727102629213_0216_20040922_223853p.mb57.mif 9.4KB Metadata I?? File for each individual data file
20070727102631214_0217_20040922_233853p.mb57.mif 9.4KB Metadata I?? File for each individual data file
20070727102631215_0218_20040923_003853p.mb57.mif 9.4KB Metadata I?? File for each individual data file
20070727102632216_0219_20040923_013853p.mb57.mif 9.4KB Metadata I?? File for each individual data file
20070727102632217_0220_20040923_023853p.mb57.mif 9.4KB Metadata I?? File for each individual data file
20070727102632218_0221_20040923_033853p.mb57.mif 9.4KB Metadata I?? File for each individual data file
20070727102633219_0222_20040923_043853p.mb57.mif 9.4KB Metadata I?? File for each individual data file
20070727102634220_0223_20040923_053853p.mb57.mif 9.4KB Metadata I?? File for each individual data file
20070727102634221_0224_20040923_063853p.mb57.mif 9.4KB Metadata I?? File for each individual data file
20070727102636222_0225_20040923_073853p.mb57.mif 9.4KB Metadata I?? File for each individual data file
20070727102636223_0226_20040923_083853p.mb57.mif 9.4KB Metadata I?? File for each individual data file
20070727102637224_0227_20040923_093854p.mb57.mif 9.4KB Metadata I?? File for each individual data file
20070727102637225_0228_20040923_103854p.mb57.mif 9.4KB Metadata I?? File for each individual data file
20070727102638226_0229_20040923_113854p.mb57.mif 9.4KB Metadata I?? File for each individual data file
20070727102638227_0230_20040923_123854p.mb57.mif 9.4KB Metadata I?? File for each individual data file
20070727102639228_0231_20040923_133854p.mb57.mif 9.4KB Metadata I?? File for each individual data file
20070727102639229_0232_20040923_143854p.mb57.mif 9.4KB Metadata I?? File for each individual data file
20070727102639230_0233_20040923_153854p.mb57.mif 9.4KB Metadata I?? File for each individual data file
20070727102641231_0234_20040923_163854p.mb57.mif 9.4KB Metadata I?? File for each individual data file
20070727102642232_0235_20040923_173854p.mb57.mif 9.4KB Metadata I?? File for each individual data file
20070727102643233_0236_20040923_183854p.mb57.mif 9.4KB Metadata I?? File for each individual data file
20070727102643234_0237_20040923_193854p.mb57.mif 9.4KB Metadata I?? File for each individual data file
20070727102644235_0238_20040923_203854p.mb57.mif 9.4KB Metadata I?? File for each individual data file
20070727102644236_0239_20040923_213855p.mb57.mif 9.4KB Metadata I?? File for each individual data file
20070727102644237_0240_20040923_223812p.mb57.mif 9.4KB Metadata I?? File for each individual data file
20070727102646238_0241_20040923_233812p.mb57.mif 9.4KB Metadata I?? File for each individual data file
20070727102647239_0242_20040924_003812p.mb57.mif 9.4KB Metadata I?? File for each individual data file
20070727102647240_0243_20040924_013812p.mb57.mif 9.4KB Metadata I?? File for each individual data file
20070727102648241_0244_20040924_023812p.mb57.mif 9.4KB Metadata I?? File for each individual data file
20070727102648242_0245_20040924_033812p.mb57.mif 9.4KB Metadata I?? File for each individual data file
20070727102648243_0246_20040924_043812p.mb57.mif 9.4KB Metadata I?? File for each individual data file
20070727102649244_0247_20040924_053812p.mb57.mif 9.4KB Metadata I?? File for each individual data file
20070727102649245_0248_20040924_063812p.mb57.mif 9.4KB Metadata I?? File for each individual data file
20070727102651246_0249_20040924_073812p.mb57.mif 9.4KB Metadata I?? File for each individual data file
20070727102651247_0250_20040924_083812p.mb57.mif 9.4KB Metadata I?? File for each individual data file
20070727102652248_0251_20040924_093812p.mb57.mif 9.4KB Metadata I?? File for each individual data file
20070727102652249_0252_20040924_103812p.mb57.mif 9.4KB Metadata I?? File for each individual data file
20070727102652250_0253_20040924_113813p.mb57.mif 9.4KB Metadata I?? File for each individual data file
20070727102653251_0254_20040924_123813p.mb57.mif 9.4KB Metadata I?? File for each individual data file
20070727102654252_0255_20040924_133813p.mb57.mif 9.4KB Metadata I?? File for each individual data file
20070727102654253_0256_20040924_143813p.mb57.mif 9.4KB Metadata I?? File for each individual data file
20070727102656254_0257_20040924_153813p.mb57.mif 9.4KB Metadata I?? File for each individual data file
20070727102656255_0258_20040924_163813p.mb57.mif 9.4KB Metadata I?? File for each individual data file
20070727102657256_0259_20040924_173813p.mb57.mif 9.4KB Metadata I?? File for each individual data file
20070727102657257_0260_20040924_183813p.mb57.mif 9.4KB Metadata I?? File for each individual data file
20070727102658258_0261_20040924_193813p.mb57.mif 9.4KB Metadata I?? File for each individual data file
20070727102658259_0262_20040924_203813p.mb57.mif 9.4KB Metadata I?? File for each individual data file
20070727102659260_0263_20040924_213813p.mb57.mif 9.4KB Metadata I?? File for each individual data file
20070727102659261_0264_20040924_223803p.mb57.mif 9.4KB Metadata I?? File for each individual data file
20070727102701262_0265_20040924_233803p.mb57.mif 9.4KB Metadata I?? File for each individual data file
20070727102702263_0266_20040925_003803p.mb57.mif 9.4KB Metadata I?? File for each individual data file
20070727102703264_0267_20040925_013803p.mb57.mif 9.4KB Metadata I?? File for each individual data file
20070727102703265_0268_20040925_023804p.mb57.mif 9.4KB Metadata I?? File for each individual data file
20070727102704266_0269_20040925_033804p.mb57.mif 9.4KB Metadata I?? File for each individual data file
20070727102704267_0270_20040925_043804p.mb57.mif 9.4KB Metadata I?? File for each individual data file
20070727102705268_0271_20040925_053804p.mb57.mif 9.4KB Metadata I?? File for each individual data file
20070727102706269_0272_20040925_063804p.mb57.mif 9.4KB Metadata I?? File for each individual data file
20070727102706270_0273_20040925_073804p.mb57.mif 9.4KB Metadata I?? File for each individual data file
20070727102707271_0274_20040925_083804p.mb57.mif 9.4KB Metadata I?? File for each individual data file
20070727102707272_0275_20040925_093804p.mb57.mif 9.4KB Metadata I?? File for each individual data file
20070727102708273_0276_20040925_103804p.mb57.mif 9.4KB Metadata I?? File for each individual data file
20070727102708274_0277_20040925_113804p.mb57.mif 9.4KB Metadata I?? File for each individual data file
20070727102708275_0278_20040925_123804p.mb57.mif 9.4KB Metadata I?? File for each individual data file
20070727102709276_0279_20040925_133804p.mb57.mif 9.4KB Metadata I?? File for each individual data file
20070727102710277_0280_20040925_143805p.mb57.mif 9.4KB Metadata I?? File for each individual data file
20070727102711278_0281_20040925_153805p.mb57.mif 9.4KB Metadata I?? File for each individual data file
20070727102711279_0282_20040925_163805p.mb57.mif 9.4KB Metadata I?? File for each individual data file
20070727102712280_0283_20040925_173805p.mb57.mif 9.4KB Metadata I?? File for each individual data file
20070727102712281_0284_20040925_183805p.mb57.mif 9.4KB Metadata I?? File for each individual data file
20070727102713282_0285_20040925_193805p.mb57.mif 9.4KB Metadata I?? File for each individual data file
20070727102713283_0286_20040925_203805p.mb57.mif 9.4KB Metadata I?? File for each individual data file
20070727102714284_0287_20040925_213805p.mb57.mif 9.4KB Metadata I?? File for each individual data file
20070727102714285_0288_20040925_221812p.mb57.mif 9.4KB Metadata I?? File for each individual data file
20070727102716286_0289_20040925_231812p.mb57.mif 9.4KB Metadata I?? File for each individual data file
20070727102716287_0290_20040926_001812p.mb57.mif 9.4KB Metadata I?? File for each individual data file
20070727102717288_0291_20040926_011812p.mb57.mif 9.4KB Metadata I?? File for each individual data file
20070727102717289_0292_20040926_021812p.mb57.mif 9.4KB Metadata I?? File for each individual data file
20070727102718290_0293_20040926_031812p.mb57.mif 9.4KB Metadata I?? File for each individual data file
20070727102719291_0294_20040926_041812p.mb57.mif 9.4KB Metadata I?? File for each individual data file
20070727102719292_0295_20040926_051812p.mb57.mif 9.4KB Metadata I?? File for each individual data file
20070727102719293_0296_20040926_061812p.mb57.mif 9.4KB Metadata I?? File for each individual data file
20070727102721294_0297_20040926_071813p.mb57.mif 9.4KB Metadata I?? File for each individual data file
20070727102721295_0298_20040926_081813p.mb57.mif 9.4KB Metadata I?? File for each individual data file
20070727102722296_0299_20040926_091813p.mb57.mif 9.4KB Metadata I?? File for each individual data file
20070727102722297_0300_20040926_101813p.mb57.mif 9.4KB Metadata I?? File for each individual data file
20070727102723298_0301_20040926_111813p.mb57.mif 9.4KB Metadata I?? File for each individual data file
20070727102723299_0302_20040926_121813p.mb57.mif 9.4KB Metadata I?? File for each individual data file
20070727102724300_0303_20040926_131813p.mb57.mif 9.4KB Metadata I?? File for each individual data file
20070727102724301_0304_20040926_141813p.mb57.mif 9.4KB Metadata I?? File for each individual data file
20070727102726302_0305_20040926_151813p.mb57.mif 9.4KB Metadata I?? File for each individual data file
20070727102726303_0306_20040926_161813p.mb57.mif 9.4KB Metadata I?? File for each individual data file
20070727102727304_0307_20040926_171813p.mb57.mif 9.4KB Metadata I?? File for each individual data file
20070727102727305_0308_20040926_191952p.mb57.mif 9.4KB Metadata I?? File for each individual data file
20070727102728306_0309_20040926_201952p.mb57.mif 9.4KB Metadata I?? File for each individual data file
20070727102728307_0310_20040926_211952p.mb57.mif 9.4KB Metadata I?? File for each individual data file
20070727102728308_0312_20040926_222408p.mb57.mif 9.4KB Metadata I?? File for each individual data file
20070727102729309_0313_20040926_232408p.mb57.mif 9.4KB Metadata I?? File for each individual data file
20070727102731310_0314_20040927_002408p.mb57.mif 9.4KB Metadata I?? File for each individual data file
20070727102731311_0315_20040927_012408p.mb57.mif 9.4KB Metadata I?? File for each individual data file
20070727102732312_0316_20040927_022408p.mb57.mif 9.4KB Metadata I?? File for each individual data file
20070727102732313_0317_20040927_032408p.mb57.mif 9.4KB Metadata I?? File for each individual data file
20070727102733314_0318_20040927_042408p.mb57.mif 9.4KB Metadata I?? File for each individual data file
20070727102734315_0319_20040927_052409p.mb57.mif 9.4KB Metadata I?? File for each individual data file
20070727102734316_0320_20040927_062409p.mb57.mif 9.4KB Metadata I?? File for each individual data file
20070727102736317_0321_20040927_072409p.mb57.mif 9.4KB Metadata I?? File for each individual data file
20070727102736318_0322_20040927_082409p.mb57.mif 9.4KB Metadata I?? File for each individual data file
20070727102737319_0323_20040927_092409p.mb57.mif 9.4KB Metadata I?? File for each individual data file
20070727102738320_0324_20040927_102409p.mb57.mif 9.4KB Metadata I?? File for each individual data file
20070727102738321_0325_20040927_112409p.mb57.mif 9.4KB Metadata I?? File for each individual data file
20070727102738322_0326_20040927_122409p.mb57.mif 9.4KB Metadata I?? File for each individual data file
20070727102739323_0327_20040927_132409p.mb57.mif 9.4KB Metadata I?? File for each individual data file
20070727102739324_0328_20040927_142409p.mb57.mif 9.4KB Metadata I?? File for each individual data file
20070727102741325_0329_20040927_152409p.mb57.mif 9.4KB Metadata I?? File for each individual data file
20070727102742326_0330_20040927_162409p.mb57.mif 9.4KB Metadata I?? File for each individual data file
20070727102742327_0331_20040927_172409p.mb57.mif 9.4KB Metadata I?? File for each individual data file
20070727102743328_0332_20040927_182410p.mb57.mif 9.4KB Metadata I?? File for each individual data file
20070727102743329_0333_20040927_192410p.mb57.mif 9.4KB Metadata I?? File for each individual data file
20070727102743330_0334_20040927_202410p.mb57.mif 9.4KB Metadata I?? File for each individual data file
20070727102744331_0335_20040927_212410p.mb57.mif 9.4KB Metadata I?? File for each individual data file
20070727102744332_0336_20040927_222410p.mb57.mif 9.4KB Metadata I?? File for each individual data file
20070727102746333_0337_20040927_223642p.mb57.mif 9.4KB Metadata I?? File for each individual data file
20070727102746334_0338_20040927_233642p.mb57.mif 9.4KB Metadata I?? File for each individual data file
20070727102747335_0339_20040928_003642p.mb57.mif 9.4KB Metadata I?? File for each individual data file
20070727102747336_0340_20040928_013642p.mb57.mif 9.4KB Metadata I?? File for each individual data file
20070727102747337_0341_20040928_023642p.mb57.mif 9.4KB Metadata I?? File for each individual data file
20070727102748338_0342_20040928_033642p.mb57.mif 9.4KB Metadata I?? File for each individual data file
20070727102748339_0343_20040928_043642p.mb57.mif 9.4KB Metadata I?? File for each individual data file
20070727102749340_0344_20040928_053642p.mb57.mif 9.4KB Metadata I?? File for each individual data file
20070727102751341_0345_20040928_063642p.mb57.mif 9.4KB Metadata I?? File for each individual data file
20070727102751342_0346_20040928_073643p.mb57.mif 9.4KB Metadata I?? File for each individual data file
20070727102752343_0347_20040928_083643p.mb57.mif 9.4KB Metadata I?? File for each individual data file
20070727102752344_0348_20040928_093643p.mb57.mif 9.4KB Metadata I?? File for each individual data file
20070727102753345_0349_20040928_103643p.mb57.mif 9.4KB Metadata I?? File for each individual data file
20070727102754346_0350_20040928_113643p.mb57.mif 9.4KB Metadata I?? File for each individual data file
20070727102754347_0351_20040928_123643p.mb57.mif 9.4KB Metadata I?? File for each individual data file
20070727102755348_0352_20040928_133643p.mb57.mif 9.4KB Metadata I?? File for each individual data file
20070727102756349_0353_20040928_143643p.mb57.mif 9.4KB Metadata I?? File for each individual data file
20070727102756350_0354_20040928_153643p.mb57.mif 9.4KB Metadata I?? File for each individual data file
20070727102757351_0355_20040928_163643p.mb57.mif 9.4KB Metadata I?? File for each individual data file
20070727102757352_0356_20040928_173643p.mb57.mif 9.4KB Metadata I?? File for each individual data file
20070727102758353_0357_20040928_183643p.mb57.mif 9.4KB Metadata I?? File for each individual data file
20070727102758354_0358_20040928_193644p.mb57.mif 9.4KB Metadata I?? File for each individual data file
20070727102759355_0359_20040928_203644p.mb57.mif 9.4KB Metadata I?? File for each individual data file
20070727102759356_0360_20040928_213644p.mb57.mif 9.4KB Metadata I?? File for each individual data file
20070727102759357_0361_20040928_220617p.mb57.mif 9.4KB Metadata I?? File for each individual data file
20070727102801358_0362_20040928_230617p.mb57.mif 9.4KB Metadata I?? File for each individual data file
20070727102802359_0363_20040929_000617p.mb57.mif 9.4KB Metadata I?? File for each individual data file
20070727102803360_0364_20040929_010617p.mb57.mif 9.4KB Metadata I?? File for each individual data file
20070727102803361_0365_20040929_020617p.mb57.mif 9.4KB Metadata I?? File for each individual data file
20070727102804362_0366_20040929_030617p.mb57.mif 9.4KB Metadata I?? File for each individual data file
20070727102804363_0367_20040929_040617p.mb57.mif 9.4KB Metadata I?? File for each individual data file
20070727102806364_0368_20040929_050617p.mb57.mif 9.4KB Metadata I?? File for each individual data file
20070727102807365_0369_20040929_060618p.mb57.mif 9.4KB Metadata I?? File for each individual data file
20070727102807366_0370_20040929_070618p.mb57.mif 9.4KB Metadata I?? File for each individual data file
20070727102807367_0371_20040929_080618p.mb57.mif 9.4KB Metadata I?? File for each individual data file
20070727102808368_0372_20040929_090618p.mb57.mif 9.4KB Metadata I?? File for each individual data file
20070727102808369_0373_20040929_100618p.mb57.mif 9.4KB Metadata I?? File for each individual data file
20070727102809370_0374_20040929_110618p.mb57.mif 9.4KB Metadata I?? File for each individual data file
20070727102809371_0375_20040929_120618p.mb57.mif 9.4KB Metadata I?? File for each individual data file
20070727102811372_0376_20040929_130618p.mb57.mif 9.4KB Metadata I?? File for each individual data file
20070727102811373_0377_20040929_140618p.mb57.mif 9.4KB Metadata I?? File for each individual data file
20070727102812374_0378_20040929_150618p.mb57.mif 9.4KB Metadata I?? File for each individual data file
20070727102812375_0379_20040929_160618p.mb57.mif 9.4KB Metadata I?? File for each individual data file
20070727102813376_0380_20040929_170618p.mb57.mif 9.4KB Metadata I?? File for each individual data file
20070727102813377_0381_20040929_180618p.mb57.mif 9.4KB Metadata I?? File for each individual data file
20070727102814378_0382_20040929_190619p.mb57.mif 9.4KB Metadata I?? File for each individual data file
20070727102816379_0383_20040929_200619p.mb57.mif 9.4KB Metadata I?? File for each individual data file
20070727102816380_0384_20040929_210619p.mb57.mif 9.4KB Metadata I?? File for each individual data file
20070727102817381_0385_20040929_220619p.mb57.mif 9.4KB Metadata I?? File for each individual data file
20070727102817382_0386_20040929_230619p.mb57.mif 9.4KB Metadata I?? File for each individual data file
20070727102818383_0387_20040929_232544p.mb57.mif 9.4KB Metadata I?? File for each individual data file
20070727102818384_0388_20040930_002544p.mb57.mif 9.4KB Metadata I?? File for each individual data file
20070727102819385_0389_20040930_012544p.mb57.mif 9.4KB Metadata I?? File for each individual data file
20070727102819386_0390_20040930_022544p.mb57.mif 9.4KB Metadata I?? File for each individual data file
20070727102819387_0391_20040930_032544p.mb57.mif 9.4KB Metadata I?? File for each individual data file
20070727102821388_0392_20040930_042544p.mb57.mif 9.4KB Metadata I?? File for each individual data file
20070727102822389_0393_20040930_052544p.mb57.mif 9.4KB Metadata I?? File for each individual data file
20070727102822390_0394_20040930_062544p.mb57.mif 9.4KB Metadata I?? File for each individual data file
20070727102823391_0395_20040930_072544p.mb57.mif 9.4KB Metadata I?? File for each individual data file
20070727102823392_0396_20040930_082544p.mb57.mif 9.4KB Metadata I?? File for each individual data file
20070727102824393_0397_20040930_092544p.mb57.mif 9.4KB Metadata I?? File for each individual data file
20070727102824394_0398_20040930_102544p.mb57.mif 9.4KB Metadata I?? File for each individual data file
20070727102824395_0399_20040930_112544p.mb57.mif 9.4KB Metadata I?? File for each individual data file
20070727102826396_0400_20040930_122544p.mb57.mif 9.4KB Metadata I?? File for each individual data file
20070727102827397_0401_20040930_132544p.mb57.mif 9.4KB Metadata I?? File for each individual data file
20070727102827398_0402_20040930_142544p.mb57.mif 9.4KB Metadata I?? File for each individual data file
20070727102828399_0403_20040930_152544p.mb57.mif 9.4KB Metadata I?? File for each individual data file
20070727102828400_0404_20040930_162545p.mb57.mif 9.4KB Metadata I?? File for each individual data file
20070727102828401_0405_20040930_172545p.mb57.mif 9.4KB Metadata I?? File for each individual data file
20070727102829402_0406_20040930_182545p.mb57.mif 9.4KB Metadata I?? File for each individual data file
20070727102829403_0407_20040930_192545p.mb57.mif 9.4KB Metadata I?? File for each individual data file
20070727102831404_0408_20040930_202545p.mb57.mif 9.4KB Metadata I?? File for each individual data file
20070727102831405_0409_20040930_212545p.mb57.mif 9.4KB Metadata I?? File for each individual data file
20070727102832406_0410_20040930_222005p.mb57.mif 9.4KB Metadata I?? File for each individual data file
20070727102832407_0411_20040930_232005p.mb57.mif 9.4KB Metadata I?? File for each individual data file
20070727102833408_0412_20041001_002005p.mb57.mif 9.4KB Metadata I?? File for each individual data file
20070727102833409_0413_20041001_012005p.mb57.mif 9.4KB Metadata I?? File for each individual data file
20070727102834410_0414_20041001_022005p.mb57.mif 9.4KB Metadata I?? File for each individual data file
20070727102834411_0415_20041001_032005p.mb57.mif 9.4KB Metadata I?? File for each individual data file
20070727102836412_0416_20041001_042005p.mb57.mif 9.4KB Metadata I?? File for each individual data file
20070727102836413_0417_20041001_052005p.mb57.mif 9.4KB Metadata I?? File for each individual data file
20070727102837414_0418_20041001_062005p.mb57.mif 9.4KB Metadata I?? File for each individual data file
20070727102838415_0419_20041001_072006p.mb57.mif 9.4KB Metadata I?? File for each individual data file
20070727102838416_0420_20041001_082006p.mb57.mif 9.4KB Metadata I?? File for each individual data file
20070727102839417_0421_20041001_092006p.mb57.mif 9.4KB Metadata I?? File for each individual data file
20070727102839418_0422_20041001_102006p.mb57.mif 9.4KB Metadata I?? File for each individual data file
20070727102841419_0423_20041001_112006p.mb57.mif 9.4KB Metadata I?? File for each individual data file
20070727102841420_0424_20041001_122006p.mb57.mif 9.4KB Metadata I?? File for each individual data file
20070727102842421_0425_20041001_132006p.mb57.mif 9.4KB Metadata I?? File for each individual data file
20070727102843422_0426_20041001_142006p.mb57.mif 9.4KB Metadata I?? File for each individual data file
20070727102843423_0427_20041001_152006p.mb57.mif 9.4KB Metadata I?? File for each individual data file
20070727102844424_0428_20041001_162006p.mb57.mif 9.4KB Metadata I?? File for each individual data file
20070727102844425_0429_20041001_172006p.mb57.mif 9.4KB Metadata I?? File for each individual data file
20070727102845426_0430_20041001_182006p.mb57.mif 9.4KB Metadata I?? File for each individual data file
20070727102846427_0431_20041001_192006p.mb57.mif 9.4KB Metadata I?? File for each individual data file
20070727102847428_0432_20041001_202006p.mb57.mif 9.4KB Metadata I?? File for each individual data file
20070727102847429_0433_20041001_212006p.mb57.mif 9.4KB Metadata I?? File for each individual data file
20070727102848430_0434_20041001_222006p.mb57.mif 9.4KB Metadata I?? File for each individual data file
20070727102848431_0435_20041001_223939p.mb57.mif 9.4KB Metadata I?? File for each individual data file
20070727102848432_0436_20041001_233939p.mb57.mif 9.4KB Metadata I?? File for each individual data file
20070727102849433_0437_20041002_003939p.mb57.mif 9.4KB Metadata I?? File for each individual data file
20070727102849434_0438_20041002_013939p.mb57.mif 9.4KB Metadata I?? File for each individual data file
20070727102851435_0439_20041002_023939p.mb57.mif 9.4KB Metadata I?? File for each individual data file
20070727102851436_0440_20041002_033939p.mb57.mif 9.4KB Metadata I?? File for each individual data file
20070727102852437_0441_20041002_043939p.mb57.mif 9.4KB Metadata I?? File for each individual data file
20070727102852438_0442_20041002_053939p.mb57.mif 9.4KB Metadata I?? File for each individual data file
20070727102852439_0443_20041002_063939p.mb57.mif 9.4KB Metadata I?? File for each individual data file
20070727102853440_0444_20041002_073917p.mb57.mif 9.4KB Metadata I?? File for each individual data file
20070727102853441_0445_20041002_083940p.mb57.mif 9.4KB Metadata I?? File for each individual data file
20070727102854442_0446_20041002_093940p.mb57.mif 9.4KB Metadata I?? File for each individual data file
20070727102854443_0447_20041002_103940p.mb57.mif 9.4KB Metadata I?? File for each individual data file
20070727102856444_0448_20041002_113940p.mb57.mif 9.4KB Metadata I?? File for each individual data file
20070727102856445_0449_20041002_123940p.mb57.mif 9.4KB Metadata I?? File for each individual data file
20070727102857446_0450_20041002_133940p.mb57.mif 9.4KB Metadata I?? File for each individual data file
20070727102857447_0451_20041002_143940p.mb57.mif 9.4KB Metadata I?? File for each individual data file
20070727102858448_0452_20041002_153940p.mb57.mif 9.4KB Metadata I?? File for each individual data file
20070727102858449_0453_20041002_163940p.mb57.mif 9.4KB Metadata I?? File for each individual data file
20070727102859450_0454_20041002_173940p.mb57.mif 9.4KB Metadata I?? File for each individual data file
20070727102859451_0455_20041002_183940p.mb57.mif 9.4KB Metadata I?? File for each individual data file
20070727102901452_0456_20041002_193940p.mb57.mif 9.4KB Metadata I?? File for each individual data file
20070727102901453_0457_20041002_203940p.mb57.mif 9.4KB Metadata I?? File for each individual data file
20070727102902454_0458_20041002_213940p.mb57.mif 9.4KB Metadata I?? File for each individual data file
20070727102902455_0459_20041002_223940p.mb57.mif 9.4KB Metadata I?? File for each individual data file
20070727102903456_0460_20041002_230721p.mb57.mif 9.4KB Metadata I?? File for each individual data file
20070727102903457_0461_20041003_000721p.mb57.mif 9.4KB Metadata I?? File for each individual data file
20070727102904458_0462_20041003_010721p.mb57.mif 9.4KB Metadata I?? File for each individual data file
20070727102904459_0463_20041003_020721p.mb57.mif 9.4KB Metadata I?? File for each individual data file
20070727102904460_0464_20041003_030721p.mb57.mif 9.4KB Metadata I?? File for each individual data file
20070727102906461_0465_20041003_040721p.mb57.mif 9.4KB Metadata I?? File for each individual data file
20070727102907462_0466_20041003_050721p.mb57.mif 9.4KB Metadata I?? File for each individual data file
20070727102907463_0467_20041003_060721p.mb57.mif 9.4KB Metadata I?? File for each individual data file
20070727102908464_0468_20041003_070722p.mb57.mif 9.4KB Metadata I?? File for each individual data file
20070727102908465_0469_20041003_080722p.mb57.mif 9.4KB Metadata I?? File for each individual data file
20070727102908466_0470_20041003_090722p.mb57.mif 9.4KB Metadata I?? File for each individual data file
20070727102909467_0471_20041003_100722p.mb57.mif 9.4KB Metadata I?? File for each individual data file
20070727102909468_0472_20041003_110722p.mb57.mif 9.4KB Metadata I?? File for each individual data file
20070727102911469_0473_20041003_120722p.mb57.mif 9.4KB Metadata I?? File for each individual data file
20070727102911470_0474_20041003_130722p.mb57.mif 9.4KB Metadata I?? File for each individual data file
20070727102912471_0475_20041003_140722p.mb57.mif 9.4KB Metadata I?? File for each individual data file
20070727102912472_0476_20041003_150722p.mb57.mif 9.4KB Metadata I?? File for each individual data file
20070727102913473_0477_20041003_160722p.mb57.mif 9.4KB Metadata I?? File for each individual data file
20070727102913474_0478_20041003_170722p.mb57.mif 9.4KB Metadata I?? File for each individual data file
20070727102913475_0479_20041003_180722p.mb57.mif 9.4KB Metadata I?? File for each individual data file
20070727102914476_0480_20041003_190722p.mb57.mif 9.4KB Metadata I?? File for each individual data file
20070727102916477_0481_20041003_200722p.mb57.mif 9.4KB Metadata I?? File for each individual data file
20070727102916478_0482_20041003_210722p.mb57.mif 9.4KB Metadata I?? File for each individual data file
20070727102917479_0483_20041003_220722p.mb57.mif 9.4KB Metadata I?? File for each individual data file
20070727102917480_0486_20041004_005234p.mb57.mif 9.4KB Metadata I?? File for each individual data file
20070727102918481_0487_20041004_015234p.mb57.mif 9.4KB Metadata I?? File for each individual data file
20070727102918482_0488_20041004_025234p.mb57.mif 9.4KB Metadata I?? File for each individual data file
20070727102919483_0489_20041004_035234p.mb57.mif 9.4KB Metadata I?? File for each individual data file
20070727102920484_0490_20041004_045234p.mb57.mif 9.4KB Metadata I?? File for each individual data file
20070727102921485_0491_20041004_055234p.mb57.mif 9.4KB Metadata I?? File for each individual data file
20070727102922486_0492_20041004_065235p.mb57.mif 9.4KB Metadata I?? File for each individual data file
20070727102922487_0493_20041004_075235p.mb57.mif 9.4KB Metadata I?? File for each individual data file
20070727102923488_0494_20041004_085235p.mb57.mif 9.4KB Metadata I?? File for each individual data file
20070727102924489_0495_20041004_095235p.mb57.mif 9.4KB Metadata I?? File for each individual data file
20070727102924490_0496_20041004_105235p.mb57.mif 9.4KB Metadata I?? File for each individual data file
20070727102926491_0497_20041004_115235p.mb57.mif 9.4KB Metadata I?? File for each individual data file
20070727102927492_0498_20041004_125235p.mb57.mif 9.4KB Metadata I?? File for each individual data file
20070727102927493_0499_20041004_135235p.mb57.mif 9.4KB Metadata I?? File for each individual data file
20070727102927494_0500_20041004_145235p.mb57.mif 9.4KB Metadata I?? File for each individual data file
20070727102928495_0501_20041004_155235p.mb57.mif 9.4KB Metadata I?? File for each individual data file
20070727102928496_0502_20041004_165235p.mb57.mif 9.4KB Metadata I?? File for each individual data file
20070727102929497_0503_20041004_175235p.mb57.mif 9.4KB Metadata I?? File for each individual data file
20070727102929498_0504_20041004_185235p.mb57.mif 9.4KB Metadata I?? File for each individual data file
20070727102931499_0505_20041004_195235p.mb57.mif 9.4KB Metadata I?? File for each individual data file
20070727102932500_0506_20041004_205235p.mb57.mif 9.4KB Metadata I?? File for each individual data file
20070727102932501_0507_20041004_215235p.mb57.mif 9.4KB Metadata I?? File for each individual data file
20070727102932502_0508_20041004_224212p.mb57.mif 9.4KB Metadata I?? File for each individual data file
20070727102933503_0509_20041004_234212p.mb57.mif 9.4KB Metadata I?? File for each individual data file
20070727102933504_0510_20041005_004212p.mb57.mif 9.4KB Metadata I?? File for each individual data file
20070727102934505_0511_20041005_014212p.mb57.mif 9.4KB Metadata I?? File for each individual data file
20070727102935506_0512_20041005_024212p.mb57.mif 9.4KB Metadata I?? File for each individual data file
20070727102936507_0513_20041005_034212p.mb57.mif 9.4KB Metadata I?? File for each individual data file
20070727102937508_0514_20041005_044212p.mb57.mif 9.4KB Metadata I?? File for each individual data file
20070727102937509_0515_20041005_054212p.mb57.mif 9.4KB Metadata I?? File for each individual data file
20070727102938510_0516_20041005_064213p.mb57.mif 9.4KB Metadata I?? File for each individual data file
20070727102938511_0517_20041005_074213p.mb57.mif 9.4KB Metadata I?? File for each individual data file
20070727102939512_0518_20041005_084213p.mb57.mif 9.4KB Metadata I?? File for each individual data file
20070727102940513_0519_20041005_094213p.mb57.mif 9.4KB Metadata I?? File for each individual data file
20070727102941514_0520_20041005_104213p.mb57.mif 9.4KB Metadata I?? File for each individual data file
20070727102941515_0521_20041005_114213p.mb57.mif 9.4KB Metadata I?? File for each individual data file
20070727102942516_0522_20041005_124213p.mb57.mif 9.4KB Metadata I?? File for each individual data file
20070727102943517_0523_20041005_134213p.mb57.mif 9.4KB Metadata I?? File for each individual data file
20070727102944518_0524_20041005_144213p.mb57.mif 9.4KB Metadata I?? File for each individual data file
20070727102944519_0525_20041005_154213p.mb57.mif 9.4KB Metadata I?? File for each individual data file
20070727102945520_0526_20041005_164213p.mb57.mif 9.4KB Metadata I?? File for each individual data file
20070727102946521_0527_20041005_174213p.mb57.mif 9.4KB Metadata I?? File for each individual data file
20070727102947522_0528_20041005_184213p.mb57.mif 9.4KB Metadata I?? File for each individual data file
20070727102948523_0529_20041005_194213p.mb57.mif 9.4KB Metadata I?? File for each individual data file
20070727102948524_0530_20041005_204213p.mb57.mif 9.4KB Metadata I?? File for each individual data file
20070727102948525_0531_20041005_214213p.mb57.mif 9.4KB Metadata I?? File for each individual data file
20070727102949526_0532_20041005_223339p.mb57.mif 9.4KB Metadata I?? File for each individual data file
20070727102949527_0533_20041005_233339p.mb57.mif 9.4KB Metadata I?? File for each individual data file
20070727102951528_0534_20041006_003339p.mb57.mif 9.4KB Metadata I?? File for each individual data file
20070727102951529_0535_20041006_013339p.mb57.mif 9.4KB Metadata I?? File for each individual data file
20070727102952530_0536_20041006_023339p.mb57.mif 9.4KB Metadata I?? File for each individual data file
20070727102952531_0537_20041006_033340p.mb57.mif 9.4KB Metadata I?? File for each individual data file
20070727102952532_0538_20041006_043340p.mb57.mif 9.4KB Metadata I?? File for each individual data file
20070727102953533_0539_20041006_053340p.mb57.mif 9.4KB Metadata I?? File for each individual data file
20070727102953534_0540_20041006_063340p.mb57.mif 9.4KB Metadata I?? File for each individual data file
20070727102954535_0541_20041006_073340p.mb57.mif 9.4KB Metadata I?? File for each individual data file
20070727102955536_0542_20041006_083340p.mb57.mif 9.4KB Metadata I?? File for each individual data file
20070727102956537_0543_20041006_093340p.mb57.mif 9.4KB Metadata I?? File for each individual data file
20070727102956538_0544_20041006_103340p.mb57.mif 9.4KB Metadata I?? File for each individual data file
20070727102957539_0545_20041006_113340p.mb57.mif 9.4KB Metadata I?? File for each individual data file
20070727102957540_0546_20041006_123340p.mb57.mif 9.4KB Metadata I?? File for each individual data file
20070727102958541_0547_20041006_133340p.mb57.mif 9.4KB Metadata I?? File for each individual data file
20070727102959542_0548_20041006_143340p.mb57.mif 9.4KB Metadata I?? File for each individual data file
20070727102959543_0549_20041006_153340p.mb57.mif 9.4KB Metadata I?? File for each individual data file
20070727103001544_0550_20041006_163340p.mb57.mif 9.4KB Metadata I?? File for each individual data file
20070727103001545_0551_20041006_173340p.mb57.mif 9.4KB Metadata I?? File for each individual data file
20070727103002546_0552_20041006_183340p.mb57.mif 9.4KB Metadata I?? File for each individual data file
20070727103003547_0553_20041006_193341p.mb57.mif 9.4KB Metadata I?? File for each individual data file
20070727103003548_0554_20041006_203341p.mb57.mif 9.4KB Metadata I?? File for each individual data file
20070727103004549_0555_20041006_213341p.mb57.mif 9.4KB Metadata I?? File for each individual data file
20070727103004550_0556_20041006_223341p.mb57.mif 9.4KB Metadata I?? File for each individual data file
20070727103004551_0557_20041006_230835p.mb57.mif 9.4KB Metadata I?? File for each individual data file
20070727103006552_0558_20041007_000835p.mb57.mif 9.4KB Metadata I?? File for each individual data file
20070727103006553_0559_20041007_010835p.mb57.mif 9.4KB Metadata I?? File for each individual data file
20070727103007554_0560_20041007_020835p.mb57.mif 9.4KB Metadata I?? File for each individual data file
20070727103007555_0561_20041007_030835p.mb57.mif 9.4KB Metadata I?? File for each individual data file
20070727103008556_0562_20041007_040835p.mb57.mif 9.4KB Metadata I?? File for each individual data file
20070727103008557_0563_20041007_050835p.mb57.mif 9.4KB Metadata I?? File for each individual data file
20070727103009558_0564_20041007_060835p.mb57.mif 9.4KB Metadata I?? File for each individual data file
20070727103009559_0565_20041007_070835p.mb57.mif 9.4KB Metadata I?? File for each individual data file
20070727103011560_0566_20041007_080835p.mb57.mif 9.4KB Metadata I?? File for each individual data file
20070727103012561_0567_20041007_090835p.mb57.mif 9.4KB Metadata I?? File for each individual data file
20070727103012562_0568_20041007_100835p.mb57.mif 9.4KB Metadata I?? File for each individual data file
20070727103013563_0569_20041007_110835p.mb57.mif 9.4KB Metadata I?? File for each individual data file
20070727103013564_0570_20041007_120835p.mb57.mif 9.4KB Metadata I?? File for each individual data file
20070727103014565_0571_20041007_130836p.mb57.mif 9.4KB Metadata I?? File for each individual data file
20070727103016566_0572_20041007_140836p.mb57.mif 9.4KB Metadata I?? File for each individual data file
20070727103017567_0573_20041007_150836p.mb57.mif 9.4KB Metadata I?? File for each individual data file
20070727103017568_0574_20041007_160836p.mb57.mif 9.4KB Metadata I?? File for each individual data file
20070727103018569_0575_20041007_170836p.mb57.mif 9.4KB Metadata I?? File for each individual data file
20070727103018570_0576_20041007_180836p.mb57.mif 9.4KB Metadata I?? File for each individual data file
20070727103019571_0577_20041007_190836p.mb57.mif 9.4KB Metadata I?? File for each individual data file
20070727103020572_0578_20041007_200836p.mb57.mif 9.4KB Metadata I?? File for each individual data file
20070727103021573_0579_20041007_210836p.mb57.mif 9.4KB Metadata I?? File for each individual data file
20070727103021574_0580_20041007_220836p.mb57.mif 9.4KB Metadata I?? File for each individual data file
20070727103022575_0581_20041007_230836p.mb57.mif 9.4KB Metadata I?? File for each individual data file
20070727103023576_0582_20041008_000836p.mb57.mif 9.4KB Metadata I?? File for each individual data file
20070727103023577_0583_20041008_010836p.mb57.mif 9.4KB Metadata I?? File for each individual data file
20070727103024578_0584_20041008_020836p.mb57.mif 9.4KB Metadata I?? File for each individual data file
20070727103024579_0585_20041008_030836p.mb57.mif 9.4KB Metadata I?? File for each individual data file
20070727103026580_0586_20041008_040836p.mb57.mif 9.4KB Metadata I?? File for each individual data file
20070727103027581_0587_20041008_050837p.mb57.mif 9.4KB Metadata I?? File for each individual data file
20070727103027582_0588_20041008_060837p.mb57.mif 9.4KB Metadata I?? File for each individual data file
20070727103028583_0589_20041008_070837p.mb57.mif 9.4KB Metadata I?? File for each individual data file
20070727103028584_0590_20041008_080837p.mb57.mif 9.4KB Metadata I?? File for each individual data file
20070727103029585_0591_20041008_090837p.mb57.mif 9.4KB Metadata I?? File for each individual data file
20070727103029586_0592_20041008_100837p.mb57.mif 9.4KB Metadata I?? File for each individual data file
20070727103030587_0593_20041008_110837p.mb57.mif 9.4KB Metadata I?? File for each individual data file
20070727103031588_0594_20041008_120837p.mb57.mif 9.4KB Metadata I?? File for each individual data file
20070727103032589_0595_20041008_130837p.mb57.mif 9.4KB Metadata I?? File for each individual data file
20070727103032590_0596_20041008_140837p.mb57.mif 9.4KB Metadata I?? File for each individual data file
20070727103033591_0597_20041008_150837p.mb57.mif 9.4KB Metadata I?? File for each individual data file
20070727103033592_0598_20041008_160837p.mb57.mif 9.4KB Metadata I?? File for each individual data file
20070727103033593_0599_20041008_170837p.mb57.mif 9.4KB Metadata I?? File for each individual data file
20070727103034594_0600_20041008_180837p.mb57.mif 9.4KB Metadata I?? File for each individual data file
KRUS05RR_cruise_report.pdf 0.67MB PDF metadata file